GFSGL_250_rhum_024.txt.gz
RH
85 83 78 69 54 44 46 54 54 64 74 72 77 77 64 48 40 29 18 15 12 10 9 6 5 4 4 3 3 3 3 3 4 5 4 4 3 2 2 3 3 3 2
80 70 61 53 46 48 56 60 67 73 75 82 74 50 33 26 21 16 15 12 10 9 6 5 4 4 3 3 3 4 4 4 4 4 3 3 3 3 2 2 3 3 3
73 65 53 47 49 58 64 72 81 85 79 83 66 45 28 21 17 15 12 10 9 6 5 4 4 4 4 4 4 4 4 3 3 3 3 3 3 3 2 3 2 3 3
65 57 54 55 64 73 81 90 87 82 84 86 66 38 32 23 16 13 10 9 7 5 5 4 4 4 4 4 5 4 3 3 3 3 3 3 3 3 3 2 3 2 3
66 67 65 72 76 80 89 92 83 88 91 71 48 34 24 18 13 10 9 8 6 5 4 5 5 5 5 5 4 3 3 3 3 2 2 2 2 3 3 2 2 2 2
80 76 74 77 84 84 93 88 92 82 71 53 36 22 17 13 11 9 8 6 5 5 5 6 5 5 5 4 3 3 4 3 3 2 2 2 2 2 2 2 2 2 2
76 76 75 79 80 92 94 97 95 72 60 42 30 19 14 12 9 9 8 6 5 5 6 6 5 5 4 4 4 3 4 3 3 3 3 2 2 2 2 2 2 2 2
74 72 74 85 92 92 100 97 76 57 42 29 20 16 12 10 8 8 7 5 5 6 6 6 5 5 4 4 4 3 4 3 3 3 3 2 3 3 2 2 2 2 2
74 82 86 93 96 99 95 69 51 43 25 20 17 12 11 8 8 8 6 5 5 6 6 6 5 4 5 4 4 4 4 3 3 3 3 3 3 3 2 2 2 2 2
84 82 89 100 100 94 70 57 40 27 21 16 12 11 10 8 8 7 6 6 6 6 6 5 5 5 5 4 4 4 3 3 4 4 4 4 3 3 2 2 2 2 2
95 100 100 99 91 67 53 38 24 18 15 12 11 11 9 8 8 6 6 6 6 5 5 5 5 5 5 4 4 4 3 3 4 4 4 4 3 3 2 2 2 2 2
100 95 97 94 68 49 37 27 20 17 14 12 12 9 8 8 7 6 6 6 5 5 5 5 5 5 5 5 5 4 4 3 4 4 5 4 3 3 2 3 3 3 3
100 78 71 62 56 41 29 19 16 13 11 12 9 9 8 8 6 6 7 6 6 5 5 5 6 6 5 6 6 5 4 4 4 5 5 4 4 3 3 3 4 4 4
76 58 54 44 22 18 18 15 14 13 12 9 9 8 8 7 5 6 6 6 5 5 6 6 8 7 6 5 5 5 4 4 4 4 6 5 4 3 3 4 4 4 4
52 48 33 24 25 15 14 14 14 13 9 8 10 9 8 6 6 6 6 6 5 5 6 7 9 8 8 6 6 5 5 4 4 4 5 5 5 4 4 4 4 5 5
37 37 37 26 20 15 14 14 12 9 8 10 9 8 6 6 6 6 6 6 5 6 7 8 10 9 7 6 6 6 5 5 4 4 5 5 5 5 4 4 5 6 6
50 40 24 15 15 15 14 11 9 8 9 9 9 7 5 6 6 6 6 6 5 6 7 9 11 9 6 6 6 5 5 5 4 4 5 5 6 5 4 4 5 6 6
35 28 17 17 14 12 10 10 9 9 8 9 8 5 5 6 6 6 6 5 5 6 8 10 11 9 7 6 6 5 5 5 5 4 4 5 5 6 6 5 5 7 7
20 21 16 13 11 10 9 10 9 8 8 8 6 5 6 6 5 5 5 5 5 6 9 11 11 10 7 6 6 5 5 5 5 5 4 5 5 6 6 6 6 6 8
14 13 11 10 10 9 9 9 7 7 7 6 5 6 6 6 5 5 5 5 5 6 9 11 11 10 7 6 6 5 5 5 4 5 4 4 5 5 6 7 6 6 7
11 10 10 10 9 7 8 7 7 7 6 5 5 6 6 5 5 5 4 5 5 6 8 10 10 10 8 7 6 5 5 4 5 4 5 4 5 5 5 6 7 7 6
10 9 8 8 7 7 7 7 6 5 4 5 6 7 6 5 5 4 4 4 5 6 8 10 10 10 9 7 6 5 5 5 4 5 4 5 4 5 5 6 6 7 7
7 7 7 6 6 7 6 5 4 4 5 6 6 7 5 5 5 5 4 5 6 7 8 9 9 8 8 6 6 5 5 5 5 5 5 4 4 4 5 5 5 6 7
6 6 6 6 5 4 4 4 4 5 6 6 6 5 4 5 6 5 4 5 7 8 7 7 8 7 6 6 6 5 5 5 5 5 5 4 4 4 4 5 5 5 5
6 5 4 4 4 4 4 5 5 5 6 6 5 4 5 6 7 6 5 6 8 7 7 6 6 6 6 6 5 5 5 5 5 5 4 4 4 4 4 4 4 5 5
4 4 4 4 4 5 5 5 6 6 6 5 4 5 6 7 7 7 6 6 7 7 6 6 5 5 5 5 5 5 5 5 5 5 4 4 4 4 4 4 4 4 4

GFSGL_250_rhum_027.txt.gz
RH
68 77 82 82 80 81 86 70 58 59 63 70 77 76 72 74 69 59 50 42 27 20 15 12 9 7 7 5 4 4 4 4 4 4 4 4 4 3 3 3 3 4 4
61 74 81 90 87 86 70 62 62 67 71 74 74 78 81 77 67 54 40 31 19 15 12 9 8 7 5 4 4 4 4 4 4 5 4 4 3 3 2 2 2 2 3
64 84 90 88 91 77 72 70 72 75 79 76 76 86 87 71 53 35 24 19 15 12 9 7 7 6 4 4 4 5 4 4 4 4 3 2 2 2 2 2 2 2 2
77 96 92 86 81 76 72 75 76 77 70 76 91 78 72 45 31 21 16 14 11 10 8 8 7 5 4 5 5 5 4 4 3 3 2 2 3 2 2 2 2 2 2
96 97 90 84 82 81 79 80 80 83 85 94 80 71 53 35 29 19 14 12 10 8 8 7 5 4 5 5 5 5 5 4 3 3 2 2 3 2 2 2 2 2 2
99 95 81 81 82 82 84 82 86 99 99 80 68 49 30 28 19 13 12 10 8 8 8 6 4 5 5 5 5 4 4 4 3 3 3 3 3 3 2 2 2 2 2
82 80 79 79 89 90 82 91 100 88 78 60 42 30 26 20 14 12 10 9 8 8 6 5 5 5 5 5 4 4 4 4 3 3 3 3 3 3 3 2 2 2 2
74 78 85 88 80 82 91 94 82 67 53 41 35 31 25 15 12 10 10 9 8 7 6 5 5 5 5 4 4 4 4 4 4 4 3 3 3 3 3 3 3 3 2
83 86 87 89 89 83 93 67 49 43 45 45 38 20 14 11 10 9 10 9 8 6 5 6 6 5 5 4 4 5 4 4 4 3 3 3 4 4 4 4 3 3 3
75 82 96 94 100 83 64 52 48 49 48 44 24 15 14 10 10 9 10 8 8 6 5 6 6 5 4 4 6 6 4 4 4 3 3 3 4 4 4 3 3 3 2
74 82 94 88 84 65 53 50 51 42 33 19 18 16 13 10 9 10 8 8 7 6 6 6 5 5 4 5 6 6 5 4 4 3 4 4 4 4 4 3 3 2 2
77 84 80 82 70 57 54 54 51 29 16 16 14 13 10 10 10 9 8 8 6 6 6 7 5 5 5 6 7 6 6 5 4 4 4 4 4 4 3 3 2 2 2
82 76 71 65 66 69 54 40 24 24 20 14 12 13 10 10 10 8 8 8 6 6 7 6 5 5 6 7 8 6 5 5 4 4 4 4 4 4 4 3 3 3 3
83 75 71 73 62 45 26 21 33 25 20 16 13 12 10 9 8 8 8 6 6 7 7 6 6 5 6 8 9 6 4 4 4 4 4 4 4 5 4 4 3 3 3
72 66 48 35 29 25 18 14 14 14 13 13 12 10 9 8 8 8 7 6 7 7 6 6 5 5 7 10 9 7 5 4 5 4 4 4 4 4 4 4 3 3 4
59 64 70 48 36 21 13 12 12 13 12 11 10 9 9 8 9 7 5 6 7 6 5 6 5 6 8 11 10 8 5 5 4 5 4 4 4 4 5 5 4 4 4
42 38 40 26 16 13 13 14 14 11 9 9 9 8 8 8 7 5 5 6 7 5 5 5 5 6 8 12 11 9 6 5 5 5 4 4 4 5 5 5 4 4 4
37 34 32 24 14 14 10 8 8 8 9 10 9 8 8 7 5 5 6 7 7 5 5 5 5 6 8 10 11 9 6 5 5 5 4 4 4 5 5 5 5 4 4
28 22 13 10 9 9 9 8 9 8 8 8 8 8 6 5 5 5 6 7 6 5 4 5 6 6 8 9 10 9 7 6 5 5 4 4 4 5 5 5 5 5 5
10 9 9 9 8 8 8 8 7 7 8 7 5 5 5 5 5 6 7 7 5 5 5 5 6 6 8 9 9 8 7 6 5 5 5 4 5 5 5 5 5 6 6
8 8 7 8 8 7 7 7 7 6 5 4 4 4 5 6 6 6 7 5 5 6 5 4 6 7 8 9 8 7 6 6 5 5 5 4 5 5 5 5 5 6 6
8 8 7 7 6 6 7 6 4 4 4 4 5 5 6 6 6 7 6 5 6 6 6 5 6 8 8 8 8 7 6 5 5 5 6 5 5 5 5 5 5 6 6
7 7 6 6 6 5 4 4 4 4 5 5 5 6 6 6 6 6 5 6 7 7 7 6 6 8 8 8 8 7 6 5 5 5 6 5 5 5 5 5 5 6 6
6 6 5 4 4 4 4 5 5 5 5 5 5 5 5 5 5 5 5 6 8 8 7 6 6 8 8 7 8 6 6 5 5 5 5 6 5 5 5 5 5 5 5
5 4 4 4 4 5 5 5 5 4 4 4 4 4 4 4 4 4 6 7 8 8 8 7 6 6 7 7 6 6 6 5 5 5 5 5 5 5 5 5 5 5 5
3 4 4 4 4 4 4 4 4 4 4 4 4 4 4 4 5 6 6 7 7 7 7 7 6 6 6 6 6 5 5 4 4 4 4 5 5 5 5 5 4 4 4

GFSGL_250_rhum_030.txt.gz
RH
58 54 50 56 59 65 78 93 92 86 76 71 80 91 77 69 68 71 71 61 48 38 26 18 16 14 11 9 6 5 5 4 4 4 4 4 4 4 3 3 3 3 3
78 69 74 61 66 81 86 70 72 68 71 82 92 79 67 76 80 70 60 49 39 29 20 14 13 11 9 7 5 5 4 4 4 4 4 4 4 4 3 3 3 3 3
85 81 59 65 83 78 67 68 68 74 83 89 83 72 83 77 69 55 48 41 30 22 17 14 12 10 7 6 5 5 4 4 4 3 4 3 3 3 2 2 2 2 2
59 60 70 75 68 71 65 68 72 74 71 75 78 87 82 67 60 50 39 32 32 20 14 11 10 8 6 6 6 4 4 4 3 3 3 3 3 2 2 2 2 2 2
59 71 66 63 74 72 70 71 79 72 67 82 82 83 77 56 53 37 33 23 18 15 11 10 8 7 7 6 5 4 5 4 4 3 3 3 3 2 2 2 3 2 2
73 68 62 70 76 75 76 79 66 71 79 73 69 63 63 62 48 40 39 29 15 11 11 9 7 6 7 6 5 5 4 4 3 3 4 3 3 3 3 3 3 2 2
68 61 61 77 84 84 77 69 67 78 72 62 58 61 49 40 35 31 22 16 11 10 9 8 7 7 7 5 5 5 4 4 4 5 4 3 3 3 3 2 3 3 2
62 65 82 92 92 79 71 72 67 66 64 53 48 44 46 48 34 14 12 12 10 9 9 8 8 7 5 5 6 5 4 4 5 5 4 4 4 3 3 3 3 3 3
72 86 92 92 80 75 80 69 71 63 46 34 26 22 26 29 14 14 13 11 10 9 9 9 8 6 6 6 6 5 4 5 6 5 4 4 3 3 3 3 4 4 4
74 87 81 71 76 66 56 60 55 46 39 44 46 36 18 14 13 12 10 9 9 9 9 8 7 5 6 6 6 5 5 5 6 5 4 4 3 3 3 4 4 4 3
86 76 75 70 60 69 61 55 50 46 40 38 38 28 18 11 12 11 8 8 9 9 8 8 6 6 6 6 6 5 5 6 7 5 4 4 3 3 4 4 4 4 3
74 68 62 62 68 76 60 52 45 36 29 25 21 21 16 12 10 10 9 10 10 9 8 6 5 6 6 6 6 5 5 8 7 5 4 4 4 3 4 4 4 3 3
65 66 72 76 67 55 46 35 31 30 24 16 12 10 10 9 10 11 10 9 8 8 7 5 5 6 6 5 6 5 5 9 8 5 5 4 4 3 4 4 4 3 3
75 75 69 66 58 42 32 28 23 19 16 12 10 9 9 10 10 10 9 8 8 7 6 5 6 7 5 5 6 5 6 9 8 5 5 4 4 3 4 4 4 4 3
74 68 64 42 32 30 24 16 12 9 8 8 8 9 9 8 8 7 8 9 7 5 5 6 7 6 5 5 5 5 6 8 7 5 4 4 4 4 3 4 4 4 3
60 55 38 31 29 24 19 19 14 11 8 8 7 7 7 7 7 7 7 5 5 5 5 6 7 6 5 5 5 5 6 8 7 5 4 4 4 4 4 4 4 5 3
43 34 30 26 20 17 10 8 7 8 8 8 8 7 6 7 6 5 5 5 5 5 6 7 7 5 5 5 5 5 6 8 8 6 5 4 4 4 4 4 4 5 4
29 23 17 17 11 9 9 9 9 8 8 7 7 7 6 5 4 4 5 5 6 6 6 7 6 5 6 5 5 6 7 8 8 6 5 4 4 4 4 4 4 4 5
21 18 14 13 11 10 9 8 7 6 6 6 6 5 4 4 4 5 6 6 6 6 6 6 5 5 6 5 5 6 7 8 8 7 5 4 4 4 4 4 4 4 5
14 10 9 9 9 8 7 7 7 6 5 5 4 4 5 6 5 5 6 6 6 6 6 6 5 7 8 6 5 7 8 8 8 7 5 5 5 4 4 4 4 4 4
9 9 8 8 7 8 6 6 5 4 4 4 5 5 5 6 5 5 5 5 6 6 6 5 6 8 8 7 6 7 8 8 7 6 5 5 5 5 5 4 4 4 4
8 7 7 6 6 6 4 4 4 4 5 5 5 5 5 5 4 5 4 5 5 5 5 5 7 8 9 8 6 6 7 7 7 6 6 5 5 5 5 5 4 4 4
7 7 6 5 4 4 4 4 4 5 5 4 4 4 4 5 5 5 5 5 5 5 5 6 7 8 9 8 7 6 7 6 6 6 5 5 5 5 5 5 5 4 4
6 5 4 4 4 4 5 4 4 4 4 4 4 4 4 5 5 5 5 5 5 6 6 7 7 8 8 8 7 7 6 6 6 6 6 5 5 5 5 5 5 5 4
4 4 4 4 4 4 4 4 4 4 4 4 4 5 5 5 5 5 5 5 6 6 6 7 7 6 7 8 7 6 7 6 6 6 5 5 5 5 5 5 5 5 5
4 4 4 4 4 4 4 4 4 4 4 4 4 4 4 4 5 5 5 5 6 6 6 6 6 5 6 6 7 6 6 6 6 5 5 5 5 5 5 5 4 4 5

GFSGL_250_rhum_033.txt.gz
RH
63 59 56 53 59 58 56 56 60 66 59 56 71 80 79 81 73 68 62 64 65 56 47 47 40 33 24 19 14 12 8 6 5 5 4 4 3 3 3 3 3 3 3
70 64 56 50 50 48 53 65 67 61 58 65 80 90 89 78 73 59 60 64 52 46 51 48 43 33 16 13 10 8 6 5 5 5 4 3 3 3 3 3 2 3 3
72 56 49 45 47 51 59 67 64 59 66 77 87 84 76 69 62 65 63 50 40 35 32 37 22 15 12 11 8 7 7 6 5 5 4 4 4 3 3 2 2 2 2
56 50 46 48 49 56 69 67 60 68 79 83 76 70 64 62 66 58 44 37 31 26 21 17 13 11 10 9 7 7 7 5 5 4 4 4 3 3 3 3 3 3 2
48 47 48 55 62 68 69 65 68 75 79 69 65 60 58 69 65 40 35 33 30 26 20 13 9 9 8 8 7 7 6 6 4 4 4 4 3 3 4 4 3 3 2
50 53 65 62 65 72 68 70 76 76 71 68 59 65 60 38 29 29 30 30 25 18 11 11 10 8 8 8 7 7 6 5 4 5 4 3 3 4 4 3 3 3 2
51 62 66 72 75 70 74 80 79 73 65 59 64 50 37 36 40 31 23 18 14 11 9 9 9 8 8 7 7 7 6 5 5 5 5 3 4 5 4 3 3 3 2
60 68 74 71 70 75 80 76 71 66 60 59 48 40 38 34 24 21 19 14 12 9 7 8 8 8 7 7 7 6 5 5 5 5 5 4 5 6 4 3 3 2 3
67 71 74 72 77 87 76 73 69 63 65 48 40 34 28 27 23 16 12 9 9 9 8 8 8 7 7 8 7 5 5 6 5 5 4 4 7 7 4 3 3 3 3
79 78 76 84 85 71 70 71 64 64 49 38 34 31 27 19 17 11 9 8 9 8 7 7 7 7 7 7 6 5 6 6 5 5 4 5 8 6 4 4 3 3 3
71 74 77 78 73 78 72 66 61 44 38 32 29 23 15 10 10 9 9 9 8 8 7 7 7 7 6 5 4 5 6 5 5 4 4 6 7 5 4 4 3 3 3
72 73 66 76 86 73 66 57 38 33 34 28 22 15 10 9 8 9 9 8 8 7 8 7 7 6 4 4 5 6 6 5 4 4 4 6 7 4 4 4 3 3 4
64 63 81 88 77 71 57 38 33 33 26 18 11 9 9 9 9 9 8 7 6 6 6 6 5 4 4 5 6 6 6 5 5 5 5 7 7 4 4 4 3 3 4
73 86 92 85 71 58 44 33 31 22 15 11 9 8 8 8 7 8 7 7 6 5 5 5 4 4 5 5 6 6 5 4 4 5 6 8 7 4 4 4 4 3 4
82 92 90 72 64 51 33 29 22 14 10 9 8 7 7 7 6 7 6 5 4 4 4 5 5 5 6 6 7 6 5 5 4 5 6 8 7 4 4 4 4 3 4
90 81 75 63 44 30 27 21 16 10 10 8 7 6 6 5 4 4 4 4 5 6 5 6 5 6 6 7 7 5 5 5 4 5 6 8 7 4 4 4 4 4 4
78 76 56 35 28 26 20 14 10 11 9 8 7 6 5 4 4 4 5 5 5 6 6 6 6 6 6 7 6 5 6 6 5 6 6 8 7 4 4 4 4 4 4
66 46 31 25 20 14 11 10 9 8 8 7 5 4 4 4 4 5 5 5 5 5 5 5 6 6 6 6 5 6 7 6 5 6 7 8 6 5 4 4 4 4 4
47 36 26 18 14 12 10 9 9 8 6 5 5 4 4 5 5 5 5 5 5 5 5 5 5 5 6 6 6 7 8 7 6 7 8 7 6 5 4 4 4 4 4
30 20 14 12 10 8 8 8 7 5 5 4 5 5 5 6 5 4 4 5 5 5 5 5 5 5 5 5 7 8 9 8 6 7 8 8 7 5 4 4 4 4 4
19 15 11 9 8 7 7 6 4 4 4 4 6 5 5 5 5 5 5 5 5 5 6 6 6 5 5 6 7 8 9 9 6 7 8 8 8 6 5 4 5 4 4
13 10 8 8 7 6 5 4 4 4 5 4 4 4 4 4 4 4 5 5 6 6 6 6 6 6 6 7 7 8 8 9 8 7 7 7 7 6 5 5 5 5 4
9 8 7 6 5 4 4 4 4 4 4 4 4 4 3 4 4 5 5 5 6 6 6 6 6 6 6 6 7 7 8 9 8 7 7 7 6 6 5 5 5 5 5
7 6 5 4 4 3 4 4 4 4 4 4 3 4 4 4 4 4 5 5 5 5 5 6 6 6 6 6 7 7 7 7 7 7 7 6 6 6 5 5 5 4 5
5 4 3 3 3 4 4 4 4 3 3 3 3 4 4 3 3 3 3 4 4 4 4 5 5 6 6 6 5 6 6 6 6 7 7 6 6 5 5 5 5 4 4
4 3 3 3 4 4 4 3 3 3 3 3 3 3 3 2 2 2 3 3 3 3 4 4 4 5 5 5 5 5 5 5 6 6 6 6 5 5 5 5 5 5 4

GFSGL_250_rhum_036.txt.gz
RH
57 60 56 48 46 49 50 48 51 55 53 57 61 64 62 63 76 84 78 69 61 55 53 48 41 43 39 29 21 14 11 9 8 9 6 5 5 5 4 4 4 3 3
55 51 50 56 55 60 62 54 55 60 62 60 63 62 68 81 85 75 66 57 58 51 41 34 30 27 23 18 13 11 8 6 7 7 6 5 4 4 5 4 3 3 3
63 72 79 75 58 63 60 54 61 61 59 62 65 68 78 80 69 65 60 56 49 42 36 30 25 20 16 11 8 8 6 6 6 6 6 5 5 5 4 4 4 4 2
80 79 64 58 62 64 57 58 55 59 64 66 74 79 78 67 61 60 51 45 38 32 29 24 20 14 10 8 7 7 6 6 6 6 6 5 5 4 4 4 4 3 2
59 53 58 61 64 58 55 60 64 63 70 72 78 72 64 61 60 48 37 30 28 26 22 16 12 11 9 8 8 7 6 7 6 6 6 5 4 4 4 4 4 3 3
50 63 62 59 61 62 66 73 68 75 70 68 63 69 75 66 50 38 34 29 24 16 12 11 10 9 8 8 9 8 7 7 6 6 5 4 4 4 4 4 3 3 3
61 65 70 82 71 66 70 68 67 66 67 74 86 79 66 56 44 37 29 22 15 11 10 10 9 9 8 8 8 6 6 6 6 6 4 4 4 5 4 3 3 4 4
74 76 82 72 65 67 65 67 69 74 84 91 85 77 69 46 38 31 20 13 10 9 9 9 9 8 7 7 6 6 6 6 5 4 4 4 5 4 4 3 4 4 4
79 84 82 65 66 71 75 68 73 83 92 92 84 76 56 40 28 19 13 10 9 9 8 8 7 7 7 7 6 5 4 4 4 4 4 5 5 4 4 4 6 5 3
84 90 75 73 77 77 74 71 86 100 100 86 69 55 36 27 19 13 10 9 9 8 8 7 6 7 6 6 5 4 4 4 4 4 5 6 4 4 4 5 6 4 4
91 79 71 73 80 73 75 92 100 100 89 72 53 36 30 21 13 9 9 9 8 8 7 6 5 5 4 4 4 4 4 4 4 5 6 5 4 4 4 6 7 4 4
78 71 75 85 74 83 94 100 98 90 75 52 35 29 22 14 9 8 8 8 7 6 5 4 4 4 4 4 5 5 5 5 5 5 5 4 4 4 5 6 6 4 3
73 75 87 76 80 85 97 97 88 76 49 33 28 22 14 10 9 8 8 6 5 4 4 4 5 5 5 5 5 5 5 6 6 6 5 4 4 4 5 6 6 4 3
70 84 74 74 84 99 100 81 74 50 34 28 22 16 11 10 8 8 6 5 5 4 4 5 5 5 5 5 6 6 6 6 6 6 5 5 4 4 5 6 6 4 4
80 73 79 87 96 99 80 71 50 36 27 21 14 10 8 8 7 6 5 5 5 5 5 5 5 5 5 5 5 5 6 6 6 5 6 6 4 5 6 6 6 4 4
78 79 81 92 96 76 70 49 40 27 20 14 10 8 7 6 5 5 5 6 6 6 5 5 4 4 5 5 5 5 5 6 5 6 7 6 5 6 6 7 5 4 4
80 80 90 88 69 65 45 34 25 20 14 11 9 6 4 4 4 4 5 6 6 6 5 5 5 5 5 5 5 5 5 5 5 7 8 6 6 6 7 6 5 4 4
78 83 81 66 62 44 35 25 17 12 10 8 7 5 4 4 4 5 5 6 6 6 5 5 5 5 5 5 6 5 5 5 6 8 9 8 6 7 7 6 5 4 4
84 77 60 54 39 30 20 14 11 8 6 5 5 5 4 4 5 5 5 5 5 5 5 5 5 5 6 6 6 6 5 6 7 8 9 8 6 7 6 6 5 4 5
68 49 41 31 26 18 13 10 8 6 4 4 4 4 4 5 4 4 4 4 4 5 5 5 5 6 6 6 6 6 6 6 7 8 9 8 6 7 6 6 5 4 5
48 42 29 20 15 12 8 6 5 4 3 4 4 5 5 5 4 4 4 4 4 5 5 5 5 5 6 6 6 6 6 6 7 8 8 9 7 6 6 6 5 5 5
29 24 19 16 11 8 6 4 4 3 4 4 4 4 4 4 4 3 3 4 4 4 4 4 5 5 5 6 6 6 6 6 7 8 8 8 8 7 7 6 5 5 5
21 16 14 9 7 5 4 3 3 3 4 4 4 4 4 3 3 4 4 4 3 3 3 3 4 4 5 5 6 6 6 6 6 6 7 7 8 7 7 6 5 5 5
14 10 8 6 4 4 3 3 4 4 4 3 3 3 3 3 3 4 3 3 3 3 3 3 3 3 4 4 5 5 5 6 6 6 6 6 7 7 7 6 6 5 4
9 6 5 4 3 4 4 4 3 3 3 3 3 3 3 3 3 3 2 2 2 2 3 3 3 3 3 4 4 4 5 5 5 6 6 6 6 7 6 6 6 5 4
6 4 3 3 4 4 4 3 3 3 3 3 3 3 3 2 2 2 2 2 2 3 3 3 3 3 3 3 4 4 4 4 5 5 6 5 6 6 6 5 5 5 5

GFSGL_250_rhum_039.txt.gz
RH
47 43 44 43 41 46 47 55 66 64 69 66 62 56 57 60 62 68 77 86 81 75 81 71 57 50 42 36 29 22 16 12 10 9 8 8 8 7 6 5 5 4 4
54 34 34 40 46 51 60 65 63 64 60 54 54 56 63 68 69 79 87 79 84 84 70 69 57 40 32 23 17 12 9 8 7 8 8 7 7 6 6 5 4 4 5
45 55 63 67 63 63 59 62 61 60 61 61 59 62 75 75 76 77 78 75 75 67 61 47 33 25 18 12 10 8 8 7 7 7 6 6 6 5 5 5 4 4 4
91 84 70 62 61 60 64 66 66 67 64 61 65 83 79 72 72 72 76 83 69 52 36 28 23 16 12 10 8 8 7 7 6 6 6 6 5 5 5 5 4 4 3
75 67 61 61 62 61 59 63 67 71 71 71 86 87 74 74 77 72 76 72 61 41 30 24 19 13 10 8 8 7 7 7 6 6 5 5 5 5 5 4 4 3 3
63 56 56 64 60 52 55 65 73 80 74 85 84 72 68 71 69 86 90 80 49 32 28 18 12 10 8 8 7 6 6 6 6 5 5 5 4 4 4 3 4 4 4
58 59 57 54 56 59 67 76 82 77 80 76 68 72 82 92 99 97 87 59 40 32 22 14 10 9 8 7 6 5 4 4 4 4 3 3 3 3 3 3 4 5 4
56 57 59 65 69 72 79 84 76 72 80 86 88 90 99 100 98 86 68 58 36 22 14 10 9 8 7 5 4 4 4 4 4 4 4 4 4 4 4 4 5 4 4
72 74 74 77 74 78 71 77 74 84 85 84 89 98 100 94 77 80 60 36 24 14 10 8 8 7 5 5 4 4 4 4 4 5 5 4 4 4 4 5 5 4 3
80 80 84 76 79 83 85 81 86 91 86 89 99 99 85 78 82 59 32 22 15 11 8 8 7 5 5 4 5 5 5 5 5 5 5 5 5 5 5 5 4 3 3
88 88 87 85 82 82 84 87 89 94 96 98 94 85 74 72 52 31 21 16 11 9 8 6 5 5 5 5 6 5 5 5 5 5 5 5 6 6 6 4 4 3 3
96 90 89 82 83 84 84 86 96 97 97 88 82 75 68 48 30 21 15 12 9 7 6 5 4 5 6 6 6 5 5 4 4 4 5 6 6 6 4 4 4 4 4
88 90 83 85 82 83 85 92 95 93 86 77 63 60 48 30 22 14 11 9 7 5 5 5 4 6 6 6 5 5 5 5 5 5 5 6 6 4 4 5 4 4 5
88 83 84 79 84 83 86 90 90 86 70 54 52 41 28 23 16 11 8 6 5 5 5 4 5 6 6 5 5 5 5 5 5 5 5 5 5 4 5 5 4 5 5
83 83 81 86 82 84 85 84 80 69 53 45 43 26 18 14 11 9 6 5 4 4 5 5 5 6 5 5 5 5 5 5 6 6 5 5 4 5 7 5 5 5 6
86 83 86 81 82 80 77 76 66 55 48 44 28 17 13 10 7 7 6 5 4 4 5 5 5 5 5 4 4 5 5 6 6 6 5 5 5 7 8 6 5 6 6
83 88 79 77 79 72 66 55 49 51 48 41 26 14 9 6 5 5 4 4 5 5 5 5 4 4 4 4 5 6 6 6 6 6 6 5 6 7 8 7 6 6 6
85 73 78 83 75 71 65 54 40 33 25 20 17 11 8 5 5 4 4 5 5 5 5 4 4 4 4 5 5 6 6 6 6 6 6 6 7 8 8 6 6 6 6
75 82 82 70 59 51 44 36 27 20 15 10 8 7 6 5 4 4 5 5 4 5 4 4 4 4 5 5 4 5 5 5 6 6 6 6 7 7 8 7 6 6 6
78 76 63 52 50 42 30 23 18 14 10 7 6 5 4 4 5 5 4 3 3 4 4 4 4 4 4 4 4 4 5 5 5 6 6 6 7 7 8 8 6 6 6
75 65 58 47 35 24 21 16 12 9 7 5 4 4 4 5 5 4 3 3 3 3 4 4 4 4 3 3 3 3 4 5 5 6 6 6 6 6 7 8 6 6 6
62 54 40 30 23 20 14 10 8 6 5 4 4 4 4 4 4 4 3 3 3 3 3 3 3 3 3 3 3 3 3 4 5 6 6 6 6 6 6 7 7 6 6
48 35 25 21 16 12 8 6 5 4 4 4 4 4 4 3 3 3 3 3 3 3 2 3 3 3 3 3 3 3 3 3 4 5 6 6 6 6 6 6 7 6 6
30 21 19 14 10 7 5 4 4 3 4 4 4 3 3 3 3 3 3 2 2 2 2 2 3 3 3 3 3 3 3 3 4 4 5 5 5 6 6 6 7 6 6
20 16 12 8 6 5 4 3 4 4 4 3 3 2 3 3 3 2 2 2 2 2 2 2 2 2 3 3 3 3 3 3 3 4 4 5 5 5 6 5 6 6 6
13 9 7 5 4 3 3 4 4 4 3 2 2 2 2 2 2 2 2 2 2 2 2 2 2 2 2 3 3 3 3 3 3 4 4 4 4 5 5 5 5 5 5

GFSGL_250_rhum_042.txt.gz
RH
76 62 59 63 78 52 52 43 48 58 61 58 60 62 63 61 64 58 53 56 62 63 68 67 63 64 66 58 48 29 20 13 10 9 8 6 6 6 6 6 5 5 4
89 83 82 81 63 61 51 54 59 59 58 62 53 50 57 64 63 59 60 66 62 68 69 70 64 66 58 46 29 21 13 10 9 8 7 6 5 5 5 5 4 4 4
86 76 58 63 67 70 68 62 67 68 64 61 67 64 62 64 64 64 68 76 76 81 72 70 67 60 53 36 22 15 11 9 8 7 6 5 4 4 4 4 4 4 4
66 67 80 83 84 75 68 64 64 61 61 66 66 66 70 72 76 79 80 77 74 80 78 76 74 69 41 22 15 12 9 8 7 6 5 4 3 3 3 3 3 3 3
79 89 88 85 82 80 69 63 62 64 67 69 76 76 78 84 84 83 85 92 89 90 91 80 66 41 24 18 13 9 8 7 6 5 4 4 3 3 3 3 4 3 3
99 98 89 90 99 88 69 64 65 67 72 68 77 81 85 89 91 87 91 96 98 91 74 57 44 28 23 15 9 8 6 5 5 4 4 4 4 4 4 4 4 3 3
96 89 89 88 80 67 61 62 70 74 86 90 90 84 84 85 88 95 96 98 95 75 52 43 34 24 16 10 8 6 4 4 5 4 5 4 4 4 4 4 4 4 4
80 78 77 71 62 66 70 76 77 83 87 74 84 92 97 98 96 96 96 98 76 52 44 39 26 16 10 8 6 5 4 4 5 6 6 5 4 4 4 4 4 5 5
83 79 68 58 64 72 76 77 81 91 95 97 99 100 97 96 95 97 91 77 50 41 41 26 16 11 8 6 5 4 4 4 5 6 6 5 4 4 4 4 4 5 5
71 61 57 64 74 78 82 88 94 98 98 99 100 97 94 99 96 89 75 55 40 34 25 17 11 7 6 5 5 4 4 5 6 6 5 5 4 4 4 4 4 5 6
73 71 72 79 89 91 94 97 93 91 96 99 97 99 100 94 85 72 55 40 29 23 17 12 7 6 5 5 5 4 5 6 6 6 5 5 5 5 5 4 5 5 4
71 73 87 98 100 99 91 78 86 98 98 94 100 100 94 83 70 59 39 26 21 16 13 9 6 5 5 5 5 5 5 6 5 5 5 5 5 5 5 5 5 5 4
85 99 100 100 100 90 82 92 96 90 89 100 98 91 86 74 58 36 22 20 16 11 9 7 5 4 4 5 6 6 5 5 5 5 5 5 6 6 5 5 5 5 6
100 100 100 96 96 92 94 88 90 95 100 95 88 80 65 56 40 23 18 16 13 8 7 6 4 4 5 5 6 5 5 5 5 5 5 6 6 6 6 5 5 6 7
100 97 94 98 97 93 88 92 99 98 88 85 77 61 47 30 24 19 16 12 8 6 5 5 5 5 5 5 5 5 4 4 5 5 6 6 6 6 6 5 5 6 7
94 96 100 98 88 84 92 100 95 85 81 73 59 38 22 16 14 13 10 8 6 4 5 5 5 5 5 5 4 4 4 5 5 5 5 6 6 6 6 5 6 7 7
100 100 91 88 94 93 87 79 80 85 88 78 60 37 25 17 13 9 6 5 4 4 5 5 5 4 4 4 4 4 4 5 5 5 5 6 6 6 6 6 6 7 7
89 92 96 94 87 83 83 76 70 64 57 56 44 29 20 14 10 7 4 4 5 5 5 4 4 4 4 4 4 4 4 5 4 4 4 5 6 6 6 6 6 8 7
93 92 81 77 77 76 67 66 57 50 34 19 17 16 12 8 6 4 4 4 5 5 4 4 4 4 4 4 4 4 4 4 3 3 4 4 6 7 7 6 6 7 8
75 71 74 74 68 65 66 56 43 27 18 14 11 8 7 5 4 4 4 4 4 4 4 3 3 4 4 4 4 3 3 3 3 3 3 4 5 6 7 6 6 7 7
77 75 70 65 66 55 46 34 20 16 13 10 8 5 4 4 4 4 4 4 3 3 3 3 3 3 3 3 3 3 3 3 3 3 3 4 5 6 6 6 6 7 7
72 69 63 59 50 42 30 19 16 12 9 7 5 4 4 4 4 3 3 3 3 3 3 3 2 2 2 2 2 2 3 3 3 3 3 3 4 5 6 6 6 6 6
65 59 52 45 38 26 17 14 9 7 5 4 3 4 4 4 3 3 3 3 3 3 2 2 2 2 2 2 2 2 3 3 3 3 3 3 4 4 5 6 6 6 6
59 49 40 36 25 17 13 8 6 5 3 3 4 4 4 3 2 2 3 3 3 2 2 2 2 2 2 2 2 2 2 3 3 3 4 4 4 4 4 5 6 6 5
42 38 33 21 17 10 7 6 4 3 3 4 4 3 3 2 2 2 2 2 2 2 2 2 2 2 2 2 2 2 2 2 3 3 3 4 4 4 4 5 5 6 5
35 25 19 14 8 6 5 4 3 3 4 3 3 2 2 2 2 2 2 2 2 2 2 2 2 2 2 2 2 2 2 2 3 3 3 3 4 4 4 4 5 5 5

GFSGL_250_rhum_045.txt.gz
RH
90 75 77 96 100 100 100 100 80 90 92 85 66 64 53 50 53 59 67 66 69 66 61 61 62 69 75 70 67 64 55 36 26 23 15 10 7 5 4 3 3 3 3
75 96 100 100 100 100 98 99 85 78 85 77 75 64 60 60 58 70 75 76 63 65 65 64 72 76 73 70 69 62 46 32 23 16 11 8 6 4 3 3 3 3 3
100 100 100 100 98 90 86 66 63 72 81 84 79 77 66 60 64 68 80 69 72 72 70 83 77 72 74 72 64 54 40 26 17 12 9 6 4 4 3 3 3 3 3
94 100 99 87 81 72 67 57 71 80 79 85 85 72 77 72 66 68 72 74 71 75 81 79 74 78 80 73 59 41 28 19 14 10 7 5 4 3 3 3 4 3 3
91 89 84 75 69 57 61 80 95 98 97 94 72 76 71 74 75 69 66 66 85 86 87 78 83 89 80 66 44 28 20 14 11 8 6 4 4 4 4 4 4 4 3
71 67 67 73 80 83 96 100 100 100 99 71 72 76 79 83 84 68 72 91 89 87 90 86 90 88 72 49 28 21 15 11 8 6 4 4 4 4 4 4 4 3 3
63 68 76 82 85 94 100 100 100 96 70 72 77 81 88 85 78 83 94 100 100 92 89 92 91 79 52 28 20 17 12 9 6 5 4 4 5 5 5 4 4 4 4
80 82 87 88 84 95 100 100 94 72 71 78 78 86 90 92 91 95 97 97 90 94 96 97 84 56 30 21 19 13 9 6 6 4 5 5 5 5 5 4 4 4 4
94 92 87 82 96 100 94 78 69 75 80 79 85 90 95 95 95 96 94 90 94 100 98 88 59 33 21 19 14 8 7 5 5 4 5 5 5 5 4 4 4 4 4
81 77 91 93 88 71 69 76 80 84 87 93 97 99 95 94 93 95 92 94 100 100 87 58 35 21 20 13 8 6 6 5 5 5 6 6 5 4 4 4 5 4 4
94 93 90 83 77 82 86 88 84 93 96 95 98 97 99 99 99 97 96 96 90 77 58 41 22 18 12 8 6 5 5 5 6 5 5 5 5 4 4 4 5 5 5
93 91 84 84 87 86 87 95 100 100 100 100 100 100 100 97 97 92 93 88 67 47 37 22 16 11 8 6 5 5 5 6 6 5 5 5 5 4 5 5 5 5 5
80 80 81 81 86 94 99 98 98 97 100 100 97 94 98 96 96 93 79 57 44 24 17 14 11 8 5 4 4 5 6 5 5 4 4 4 5 5 5 5 6 6 6
80 82 85 88 87 87 87 95 98 94 91 93 88 91 92 92 83 70 55 42 28 16 12 9 7 5 4 4 6 6 5 5 4 4 4 4 5 5 5 5 5 6 6
82 81 82 82 85 84 86 86 84 89 88 87 85 80 74 70 58 46 34 20 16 13 9 7 4 4 4 5 6 5 5 5 4 4 4 5 5 5 5 5 5 6 6
94 94 88 82 84 90 93 93 94 86 80 77 74 65 54 44 37 26 14 12 9 6 5 4 4 4 5 5 5 5 4 4 4 4 4 4 4 5 4 4 5 5 6
69 68 73 81 88 93 90 87 84 82 84 78 67 62 51 36 22 14 12 9 7 5 4 4 5 5 4 4 4 4 4 4 4 4 4 4 4 4 4 4 4 5 6
86 85 85 94 91 83 82 76 76 74 72 69 67 53 38 23 16 11 7 6 5 4 4 5 4 4 3 3 3 4 4 4 4 4 3 4 4 4 4 4 4 5 6
93 75 77 84 85 79 74 71 65 62 55 52 40 28 19 16 12 8 6 4 4 5 5 4 3 3 3 3 3 4 3 3 3 3 3 3 3 3 3 3 4 5 6
69 73 76 77 74 72 66 59 60 51 39 28 20 14 14 11 8 6 4 4 4 4 4 3 3 3 3 3 3 3 3 3 3 3 3 3 3 3 3 3 4 5 6
69 73 74 69 72 67 58 56 46 32 23 17 11 10 8 6 5 4 4 5 4 3 3 3 3 3 3 3 3 3 3 3 3 3 3 3 3 3 3 3 4 5 6
78 75 73 74 64 56 52 42 29 23 16 10 8 7 5 4 4 4 4 3 3 2 3 3 3 2 2 2 2 2 2 2 3 3 3 3 3 3 3 4 4 4 5
77 76 72 62 57 52 39 28 23 14 9 7 5 4 4 4 4 4 3 2 2 2 2 3 2 2 2 2 2 2 2 2 3 3 3 3 3 3 4 4 4 4 5
75 65 59 58 50 36 28 20 12 9 6 5 4 3 4 4 4 3 2 2 2 2 2 2 2 2 2 2 2 2 2 2 2 2 2 2 3 3 3 4 4 4 4
58 60 56 44 34 26 17 10 8 6 4 3 3 4 4 3 2 2 2 2 2 2 2 2 2 2 2 2 2 2 2 2 2 2 2 2 3 3 3 4 4 4 4
52 44 36 28 19 13 10 8 5 4 3 4 4 3 3 2 2 2 2 2 2 2 2 2 2 2 2 2 2 2 2 2 2 2 2 2 3 3 3 3 4 4 4

GFSGL_250_rhum_048.txt.gz
RH
54 65 89 98 100 100 90 98 100 100 100 100 100 100 97 80 64 67 69 62 66 58 64 70 75 74 74 71 62 66 73 72 65 66 68 51 29 22 15 9 6 4 4
55 53 60 72 77 86 100 100 100 100 100 100 100 100 83 66 65 81 90 84 78 82 79 84 80 73 72 66 67 80 75 66 67 67 57 35 20 16 10 6 5 4 3
62 58 60 72 83 100 100 100 100 100 100 95 82 75 70 80 91 84 82 85 85 89 98 98 91 79 85 88 88 80 72 70 69 56 40 26 18 11 7 5 4 4 4
74 72 74 79 94 100 100 100 99 90 83 77 68 67 80 85 83 83 90 96 95 100 98 97 91 87 92 87 81 81 75 77 65 39 27 18 14 8 6 5 4 4 4
81 87 84 92 100 100 100 97 82 75 67 62 73 84 88 96 97 100 100 97 100 98 95 91 92 97 92 87 82 78 76 68 46 29 17 15 10 6 4 4 5 4 4
65 82 93 96 100 100 94 89 75 67 64 76 90 99 100 100 100 100 100 98 96 92 89 98 96 94 93 79 80 82 77 46 33 20 16 10 7 4 4 5 5 5 5
45 52 80 95 96 94 87 77 69 74 86 98 100 97 100 100 100 99 93 83 83 93 98 96 99 87 79 81 80 70 48 37 23 18 12 8 5 4 5 5 5 5 4
48 48 51 67 81 83 76 77 89 95 100 100 98 100 100 97 87 77 74 80 89 98 98 92 83 84 84 80 62 48 38 25 18 13 8 6 4 5 6 5 5 5 4
69 74 79 80 80 86 92 98 100 100 100 100 100 94 84 66 73 80 81 86 95 97 86 86 89 85 76 61 45 37 27 18 10 8 5 5 5 6 5 5 5 4 4
83 86 89 91 94 100 100 96 92 100 92 95 88 73 76 78 79 86 87 92 100 89 84 89 91 83 61 45 36 24 17 9 7 5 5 5 6 6 5 5 5 4 4
98 99 100 100 100 95 97 95 89 95 92 79 78 80 83 92 96 93 90 87 80 82 87 89 76 56 50 32 21 14 8 6 5 5 5 5 6 6 5 5 5 4 4
99 96 93 91 88 86 90 91 84 77 71 72 76 82 91 98 90 84 81 82 82 80 78 66 52 43 28 20 11 7 5 5 5 6 6 5 6 5 5 5 5 5 4
80 80 85 89 85 76 75 71 78 82 88 92 95 94 81 85 81 82 92 89 83 70 55 44 36 25 17 9 6 4 4 5 6 6 5 5 5 4 4 4 5 5 5
76 80 79 79 82 84 87 97 99 100 100 99 94 72 77 75 83 86 77 74 69 59 46 36 23 17 9 6 4 4 5 5 5 5 4 4 4 4 4 4 4 4 4
75 72 77 80 87 87 91 99 95 85 81 70 67 70 69 75 78 73 67 55 44 37 25 20 14 8 5 4 4 4 5 5 4 4 4 4 4 4 4 4 4 4 4
71 75 82 85 92 94 94 79 78 68 61 63 65 68 74 73 65 55 43 33 25 20 14 9 6 4 4 4 4 4 4 4 3 3 4 4 4 4 4 4 4 4 3
81 77 82 74 66 65 70 73 67 65 68 70 75 75 69 60 50 40 33 28 20 13 8 5 4 4 4 4 4 3 3 3 3 4 3 3 3 3 3 3 3 3 3
76 71 67 72 72 67 64 63 66 71 70 72 70 65 57 46 38 30 24 17 12 8 4 4 4 4 4 4 3 3 3 3 4 3 3 3 3 3 3 3 3 3 3
68 72 64 65 66 70 74 72 70 72 74 68 61 53 47 40 31 23 14 10 7 5 4 4 4 4 3 3 3 3 3 3 3 3 3 3 3 3 3 3 3 3 3
78 95 95 76 76 80 81 76 70 66 58 52 50 46 39 32 22 14 10 7 5 4 5 4 3 3 3 3 3 3 3 3 3 2 2 3 3 3 3 3 3 3 3
77 80 86 90 87 81 75 69 59 58 53 48 41 34 26 17 12 8 6 5 5 5 4 3 2 2 3 2 3 2 2 2 2 2 2 2 2 2 3 3 3 3 3
88 83 84 81 74 65 64 59 52 46 43 37 30 22 14 9 6 4 4 5 4 4 3 3 2 2 2 2 2 2 2 2 2 2 2 2 2 2 3 3 3 3 3
81 79 72 65 64 61 53 46 42 38 31 23 16 10 6 5 4 4 4 4 3 3 3 3 2 2 2 2 2 2 2 2 2 2 2 2 2 2 3 3 3 3 3
80 70 64 59 54 47 43 38 33 24 16 10 7 5 4 4 4 4 3 3 3 3 3 2 2 2 2 2 2 2 2 2 2 2 2 2 2 2 2 3 3 3 3
65 62 56 52 45 38 35 28 19 12 8 6 5 4 4 4 4 3 3 2 2 2 2 2 2 2 2 2 2 2 2 2 2 2 2 2 2 2 2 3 3 3 3
55 50 43 40 36 31 21 14 8 6 5 4 4 4 3 3 3 2 2 2 2 2 2 2 2 2 2 2 2 2 2 2 2 2 2 2 2 2 2 3 3 3 3

GFSGL_250_rhum_051.txt.gz
RH
77 68 61 50 50 64 60 82 98 100 100 100 100 100 100 100 100 100 94 88 87 74 72 83 96 100 100 78 76 78 82 69 59 77 79 70 64 60 50 38 38 24 15
78 82 68 69 67 66 71 87 99 100 100 91 98 100 100 100 100 92 84 79 77 75 69 94 100 84 71 73 79 74 69 75 80 85 80 70 64 58 41 32 26 18 12
90 78 58 49 73 68 64 60 59 66 75 91 99 100 100 97 93 83 78 75 80 96 99 92 72 81 80 80 72 71 74 85 87 78 69 70 60 48 36 27 17 14 9
62 74 86 86 88 84 86 78 79 83 87 94 98 100 100 93 85 81 75 84 92 95 93 88 92 81 77 81 80 78 83 76 76 74 70 60 50 40 27 17 14 10 6
80 93 94 99 92 84 76 70 69 73 80 91 94 90 86 92 84 82 91 100 98 93 95 96 87 81 78 76 73 76 77 75 75 68 59 45 39 29 17 12 8 6 5
83 92 96 96 77 62 53 49 67 88 97 100 100 100 94 91 97 100 98 96 96 100 98 88 82 72 76 75 79 78 82 84 74 60 44 36 28 24 15 10 6 4 5
61 56 54 57 58 60 63 66 69 74 84 94 96 96 99 99 100 100 100 97 100 92 84 78 74 72 73 81 82 92 90 78 64 49 43 38 26 19 10 6 5 5 6
56 60 69 77 86 91 93 93 93 97 100 100 100 100 100 100 100 95 94 92 96 88 85 80 75 79 92 86 83 78 72 64 55 47 42 27 18 10 6 4 5 6 5
78 83 90 93 95 96 98 100 100 100 100 98 96 100 100 92 93 94 88 78 74 73 80 84 80 84 86 84 81 70 58 55 40 27 18 14 10 6 4 4 5 5 5
84 84 86 90 95 95 93 91 90 93 100 100 95 90 85 78 78 76 76 70 71 76 82 89 91 85 86 85 71 56 46 42 27 18 11 8 6 4 5 5 5 5 5
63 68 72 73 75 80 91 99 88 84 85 76 78 80 80 78 74 74 81 82 75 81 86 86 88 90 79 66 57 49 35 24 17 10 7 5 4 5 5 5 4 4 4
52 64 86 99 100 97 96 98 96 72 69 78 76 73 69 63 67 83 82 81 77 77 83 88 86 74 60 51 45 36 22 13 8 6 4 4 5 5 4 4 4 4 4
100 92 99 100 100 96 80 70 71 75 70 71 67 71 80 83 82 84 86 87 90 88 84 76 65 51 47 43 36 22 12 8 5 4 4 5 4 4 3 3 3 4 4
84 80 81 80 68 66 69 68 62 68 75 79 83 86 80 77 77 77 78 76 78 71 64 54 50 49 41 32 20 12 7 5 4 5 5 4 3 3 3 3 3 4 4
80 73 75 75 67 64 64 64 77 87 88 78 69 66 73 73 76 68 64 60 58 55 49 48 42 33 28 17 10 6 5 5 5 5 4 3 3 3 4 4 3 3 3
63 66 69 65 63 66 66 74 81 77 72 66 69 74 75 67 66 65 60 56 52 45 38 32 26 18 11 7 5 4 5 5 4 3 3 3 3 3 3 3 3 3 3
61 61 67 61 62 76 68 66 63 74 73 75 72 70 68 62 64 60 54 46 39 33 25 17 11 8 6 4 4 5 5 4 3 3 3 3 3 3 3 3 3 3 3
73 65 52 58 66 67 70 66 69 80 68 62 73 77 73 67 62 54 44 40 31 20 12 8 7 6 5 4 4 4 3 3 3 3 3 3 3 2 2 2 3 3 3
66 56 65 62 73 75 81 84 72 72 69 64 68 65 66 64 56 47 38 26 18 10 8 6 5 5 4 4 3 2 3 3 3 3 3 2 2 2 2 3 3 3 3
86 86 82 78 88 99 86 67 76 84 63 57 60 65 60 52 42 30 21 16 10 7 5 5 5 4 4 3 2 2 3 3 3 2 2 2 2 2 2 2 2 3 3
100 91 100 100 99 82 81 89 88 76 60 62 63 57 46 36 26 19 14 8 6 5 5 5 4 3 3 3 3 2 2 2 2 2 2 2 2 2 2 2 2 3 3
100 100 100 100 79 87 86 79 73 74 67 61 52 42 32 25 18 12 7 5 4 4 4 4 3 3 3 3 2 2 2 2 2 2 2 2 2 2 2 2 2 3 2
94 98 88 78 85 98 92 83 67 62 54 49 42 31 23 15 9 6 5 4 4 4 3 3 3 3 2 2 2 2 2 2 2 2 2 2 2 2 2 2 2 2 2
94 83 76 86 85 80 82 79 61 51 47 37 26 18 11 7 6 5 4 4 4 3 3 3 2 2 2 2 2 2 2 2 2 2 2 2 2 2 2 2 2 2 2
70 74 78 82 76 76 75 50 48 40 29 20 13 8 6 5 5 4 4 3 3 3 2 2 2 2 2 2 2 2 2 2 2 2 2 2 2 2 2 2 2 2 2
74 74 78 81 70 56 49 42 33 22 16 9 7 6 5 4 4 3 3 2 2 2 2 2 2 2 2 2 2 2 2 2 2 2 2 2 2 2 2 2 2 2 2

GFSGL_250_rhum_054.txt.gz
RH
67 81 92 98 86 64 69 88 82 71 65 75 75 86 100 100 100 100 100 98 98 100 92 95 96 91 90 93 86 86 69 67 66 71 66 69 59 55 56 54 57 54 46
98 100 98 74 87 75 86 80 62 68 68 61 70 88 100 100 100 98 92 89 95 99 100 96 91 91 93 86 78 69 79 78 66 69 68 61 54 55 58 56 59 46 35
59 82 100 100 89 88 88 78 69 55 59 63 66 70 72 72 77 86 93 98 95 93 93 94 100 93 86 85 85 80 79 73 74 64 58 57 62 62 60 57 52 40 31
61 59 62 68 66 66 64 58 62 62 63 68 72 68 69 75 75 78 75 75 83 96 100 92 93 92 82 87 85 84 72 64 61 57 57 66 65 66 57 44 33 27 22
53 78 73 75 72 69 80 73 72 71 81 84 59 50 51 55 60 77 90 94 94 95 100 83 72 75 75 76 72 70 63 68 72 67 64 64 68 63 56 34 23 15 11
66 54 49 49 50 64 71 70 54 45 48 57 71 86 93 88 81 88 100 100 96 81 84 79 75 80 85 86 90 93 87 88 84 79 75 74 67 56 42 28 18 9 7
38 37 37 39 39 39 47 62 71 80 81 81 79 79 84 92 99 96 83 76 75 83 78 76 66 63 69 63 68 78 92 92 93 85 83 81 59 49 38 21 10 7 5
46 42 42 46 54 64 68 68 65 67 73 82 88 86 96 94 87 77 74 87 77 76 66 64 72 74 77 78 83 87 84 84 85 76 67 54 45 33 22 12 8 5 5
54 58 61 64 64 63 59 53 57 66 77 85 92 96 88 88 83 80 80 78 74 68 71 76 76 76 76 82 78 74 74 75 71 63 51 40 22 15 11 8 5 4 5
45 40 38 36 34 36 47 53 65 94 99 96 84 85 76 67 86 91 76 66 71 77 72 77 82 83 85 84 81 77 67 63 57 48 35 22 12 8 6 5 5 5 5
88 90 89 88 86 87 97 99 95 99 95 81 75 65 66 74 73 66 69 72 70 65 70 73 76 78 83 85 79 68 56 46 38 27 17 10 6 5 4 4 5 5 4
65 75 89 100 100 99 99 94 87 77 73 70 69 67 68 60 61 75 75 85 69 57 55 68 74 78 77 73 64 52 42 32 21 13 8 7 5 4 4 5 5 4 3
80 76 74 78 79 89 86 80 78 71 73 69 72 71 58 67 81 89 68 65 57 65 64 66 69 69 67 58 47 38 26 18 12 8 6 5 4 4 5 4 3 4 4
99 87 80 87 87 81 74 70 74 80 80 75 61 59 62 85 86 80 76 74 76 74 67 67 63 64 60 48 37 25 18 11 7 6 5 4 4 4 3 3 3 3 4
75 87 83 77 77 79 85 97 95 93 80 67 61 67 76 82 77 80 80 83 91 78 71 65 62 59 44 32 21 14 10 7 5 5 5 4 4 3 3 3 3 3 3
77 82 83 83 83 88 89 87 81 82 70 60 72 66 82 76 68 78 85 83 88 77 63 58 51 37 22 15 11 9 7 5 5 4 4 3 3 3 3 3 3 3 3
80 75 87 96 98 96 74 74 70 70 69 74 74 72 69 81 80 87 87 82 77 63 58 49 34 19 11 9 7 6 6 5 4 4 3 3 3 3 3 3 3 2 2
79 81 100 100 91 84 79 62 64 68 72 94 86 83 95 100 85 86 88 78 70 55 41 29 16 10 8 6 6 5 5 4 3 3 3 3 3 3 3 3 2 2 2
83 90 95 86 85 98 86 63 67 84 100 91 92 88 88 90 99 95 85 71 51 41 31 20 11 8 6 5 5 4 3 3 3 3 3 3 3 2 2 2 2 2 2
87 76 82 86 88 81 70 81 92 100 100 97 90 96 89 79 79 76 67 49 39 27 15 11 8 6 5 4 4 3 3 2 3 2 2 2 2 2 2 2 2 2 2
95 98 100 100 95 79 92 100 100 100 95 96 93 88 87 82 74 60 48 37 24 15 11 7 6 6 4 3 3 3 3 2 2 2 2 2 2 2 2 2 2 2 2
98 100 96 82 81 99 100 100 100 96 88 95 91 81 77 66 62 45 33 22 14 10 6 6 5 4 3 3 3 2 2 2 2 2 2 2 2 2 2 2 2 2 2
89 92 89 89 100 100 100 86 91 90 92 80 75 66 56 49 39 27 17 11 7 6 5 4 4 3 3 2 2 2 2 2 2 2 2 2 2 2 2 2 2 2 2
96 96 100 100 99 94 94 94 90 75 74 74 63 50 48 27 20 11 8 6 5 4 4 3 3 2 2 2 2 2 2 2 2 2 2 2 2 2 2 2 2 2 3
95 96 93 93 92 87 90 82 73 61 56 49 41 35 25 15 8 7 5 5 4 3 3 2 2 2 2 2 2 2 2 2 2 2 2 2 2 2 2 2 2 2 2
81 84 81 78 79 70 63 61 57 51 41 38 27 17 10 7 5 5 4 4 3 2 2 2 2 2 2 2 2 2 2 2 2 2 2 2 2 2 2 2 2 2 2

GFSGL_250_rhum_057.txt.gz
RH
79 74 90 94 100 95 76 87 94 98 98 100 100 100 98 100 100 100 95 83 85 94 100 95 81 78 86 91 81 80 97 94 79 68 56 53 57 57 56 51 48 46 50
100 100 100 100 100 98 100 99 100 100 100 100 100 100 96 96 80 62 66 69 69 68 67 69 67 58 63 87 96 87 77 67 54 55 60 58 58 58 60 56 52 47 45
87 100 100 100 100 99 100 100 100 100 100 100 100 97 95 73 57 52 49 52 58 51 55 68 81 90 94 86 75 69 61 60 62 62 66 66 62 64 62 64 57 50 42
98 97 100 100 100 100 100 100 100 100 100 98 82 62 59 51 42 46 58 63 65 79 86 83 90 83 72 66 62 65 62 61 60 60 61 62 64 67 61 59 57 50 44
73 78 72 70 74 72 78 100 99 80 62 58 49 39 33 33 40 54 70 81 78 78 79 86 77 70 75 73 70 64 61 61 58 56 57 59 68 66 63 57 47 38 27
60 66 68 66 65 68 60 56 52 50 56 35 32 36 49 60 70 72 67 62 73 75 82 80 76 78 72 67 66 65 60 59 63 62 63 68 74 67 58 52 36 24 15
64 65 50 47 46 42 40 38 34 33 36 48 53 55 59 56 54 56 60 71 74 73 70 65 71 75 72 71 66 76 68 62 58 61 70 74 69 71 60 38 25 15 9
42 46 47 44 42 42 44 48 52 51 45 40 39 43 51 62 73 80 77 71 72 66 64 70 76 74 77 75 78 85 78 68 69 69 65 66 64 58 37 21 13 8 6
57 55 50 61 71 76 76 70 67 68 71 73 74 74 87 91 87 86 76 69 69 78 70 66 74 76 76 78 84 84 76 76 71 69 71 66 56 39 25 12 8 5 5
51 55 62 66 69 68 70 66 65 68 71 78 78 88 95 85 81 72 66 65 72 67 61 67 79 87 91 96 89 74 82 74 68 71 76 71 42 21 13 8 6 4 4
53 52 54 57 63 73 64 67 72 73 75 69 67 72 74 82 85 84 81 86 80 68 65 69 84 82 94 99 89 82 80 69 66 62 52 34 19 12 8 6 5 4 4
69 66 61 60 64 60 68 71 72 71 76 74 67 71 74 81 91 97 94 87 74 61 64 79 82 98 100 100 89 90 77 62 50 35 26 18 10 7 6 5 5 4 4
92 88 73 72 62 63 65 68 73 73 77 72 74 79 89 95 81 64 66 71 68 71 82 80 95 100 93 95 79 80 69 51 42 29 17 10 7 5 5 5 4 4 3
100 100 100 79 72 74 71 70 67 73 79 83 80 94 99 91 88 92 71 64 62 76 75 80 97 99 100 87 82 70 57 42 28 16 10 7 6 5 4 4 3 3 3
100 100 96 85 88 90 89 89 80 81 83 89 100 91 91 99 100 85 69 77 73 81 88 95 93 98 97 89 74 61 41 28 17 11 7 6 5 4 3 3 3 3 3
95 97 94 90 94 98 99 96 95 86 91 97 90 96 100 98 82 65 77 76 82 98 97 98 98 95 79 66 54 41 30 15 10 8 6 5 4 3 3 3 3 3 3
98 98 86 95 100 100 99 100 96 100 94 80 84 92 100 94 64 70 82 94 100 100 98 98 92 72 56 46 40 28 16 10 7 6 4 4 3 3 3 3 2 2 3
96 68 100 100 100 100 100 100 99 87 82 92 100 100 100 87 77 83 100 100 100 97 95 94 76 61 48 39 23 15 9 7 5 4 3 3 3 2 2 2 2 2 3
65 100 100 100 100 100 100 100 100 88 92 99 89 80 84 88 85 98 100 100 98 94 95 77 61 54 35 22 13 8 7 5 4 3 2 2 2 2 2 2 2 2 2
100 100 100 100 100 100 100 92 88 97 99 83 83 94 98 95 93 100 100 95 96 87 63 51 47 31 19 12 8 7 5 4 3 2 2 2 2 2 2 2 2 2 2
100 100 100 100 100 100 100 100 100 81 66 81 90 92 90 92 100 94 87 86 76 55 43 33 21 15 11 8 6 5 3 3 3 2 2 2 2 2 2 2 2 2 2
94 98 100 99 95 95 92 93 85 72 82 92 92 94 96 91 89 86 73 56 47 39 28 17 13 9 6 5 4 3 3 3 2 2 2 2 2 2 2 2 2 2 2
96 100 100 98 87 80 79 66 64 79 80 84 90 90 88 76 60 55 47 41 34 21 14 9 7 5 4 3 3 3 3 2 2 2 2 2 2 2 2 2 2 2 2
100 100 100 86 74 70 62 66 74 77 76 82 84 76 56 49 45 37 33 21 14 10 6 5 5 4 3 3 2 2 2 2 2 2 2 2 2 2 2 2 2 2 2
99 88 63 66 62 58 54 58 67 76 73 65 53 46 40 34 29 21 15 11 7 6 5 4 3 3 2 2 2 2 2 2 2 2 2 2 2 2 2 2 2 2 2
55 63 57 48 41 44 53 57 51 46 40 33 31 30 26 18 14 11 7 6 5 4 3 2 2 2 2 2 2 2 2 2 2 2 2 2 2 2 2 2 2 2 2

GFSGL_250_rhum_060.txt.gz
RH
60 57 65 84 98 100 100 58 100 97 98 96 80 81 67 100 100 100 100 100 100 100 100 100 91 83 86 81 82 74 95 94 98 87 79 74 69 70 68 56 54 54 55
98 100 100 100 96 85 100 68 100 100 100 100 99 74 96 97 100 100 100 100 100 100 100 94 76 80 72 61 78 90 92 88 88 84 74 72 75 76 67 74 68 62 60
100 100 100 100 100 95 100 100 100 99 100 100 70 98 73 66 94 100 100 100 96 95 82 62 49 56 83 78 76 71 85 82 71 65 70 72 78 82 75 71 62 55 57
100 100 100 100 100 100 100 100 100 100 100 100 100 100 100 100 100 100 100 100 90 51 40 59 70 75 68 63 78 77 70 64 65 66 67 73 80 75 74 73 62 62 65
100 100 100 100 94 100 100 100 100 100 100 100 100 100 100 100 100 100 85 58 49 60 63 57 51 62 76 82 76 67 63 67 64 62 71 81 78 84 81 76 68 60 62
96 100 100 100 100 100 100 100 100 100 100 100 100 100 76 66 56 45 54 62 49 41 55 68 80 82 88 77 63 67 66 62 63 69 74 76 92 93 88 77 64 55 48
79 89 88 100 100 99 96 100 88 68 61 55 49 46 47 51 51 49 54 67 76 76 84 93 87 80 69 72 74 79 72 65 69 73 78 83 72 94 71 63 59 48 38
43 63 66 64 65 53 49 52 48 48 54 63 68 71 71 72 69 64 58 54 60 74 76 77 82 79 80 84 88 80 76 78 76 76 81 89 90 77 64 54 50 33 22
46 42 40 45 48 50 51 50 53 58 57 54 55 54 52 56 59 58 57 61 63 64 66 76 73 79 84 85 71 68 81 82 88 94 94 92 92 82 62 52 47 22 13
42 44 40 41 45 48 48 45 45 48 49 47 48 53 55 55 57 56 57 60 65 69 73 76 84 86 83 78 80 86 81 78 94 99 100 100 95 83 75 56 28 13 9
49 42 45 40 39 42 49 51 55 49 50 54 60 69 70 66 68 71 71 65 73 80 90 90 89 89 90 83 75 70 74 79 89 85 95 100 87 76 59 37 21 12 7
52 54 55 59 60 60 57 59 67 72 60 59 69 73 83 86 95 88 78 85 86 98 99 100 100 100 100 88 66 70 81 93 85 92 94 81 65 52 40 24 14 8 6
76 63 56 56 54 59 61 63 64 70 55 66 74 80 90 88 89 97 100 96 99 100 100 100 100 100 98 80 73 74 82 86 94 88 80 57 38 34 25 14 9 6 5
99 99 80 61 67 63 67 84 81 70 56 82 62 55 79 82 89 100 89 85 99 91 92 100 100 99 94 76 68 75 99 90 90 70 56 40 29 22 13 7 6 5 4
82 74 99 83 77 83 98 99 98 83 68 91 70 86 83 89 94 93 95 96 98 86 81 95 96 87 76 68 79 100 96 89 72 58 40 30 18 12 8 5 4 3 3
96 73 93 94 72 73 93 92 86 68 71 71 92 100 100 100 93 91 97 99 88 75 74 72 70 75 78 85 90 94 86 71 60 45 33 17 11 8 6 4 3 3 2
100 89 84 96 95 74 80 81 64 57 69 86 100 100 100 100 100 100 100 87 74 76 75 69 81 84 88 89 90 82 73 56 43 32 18 12 8 6 4 3 3 3 2
100 73 76 93 96 82 74 70 59 87 100 100 100 100 100 100 100 94 87 78 81 68 65 80 83 84 84 82 76 68 52 40 28 17 11 8 5 4 4 3 3 2 2
95 76 82 87 87 71 65 71 100 100 100 100 100 100 100 100 99 86 77 70 59 68 78 78 75 72 72 65 54 46 34 24 14 10 7 5 4 3 3 3 2 2 2
83 77 86 73 63 73 98 100 100 100 100 100 100 100 100 100 88 82 65 46 57 72 74 64 65 64 52 49 40 28 19 11 9 6 5 4 3 3 3 2 2 2 2
89 83 68 70 100 100 100 100 100 100 100 100 92 100 97 82 75 52 42 61 71 66 60 57 50 42 40 26 20 14 10 7 5 4 3 3 3 3 2 2 2 2 2
87 94 100 100 100 100 96 99 100 100 100 88 100 97 72 55 46 46 58 56 55 52 49 40 32 26 19 13 9 7 6 4 3 3 3 3 2 2 2 2 2 2 2
100 98 99 100 100 100 100 93 94 98 98 99 77 63 42 40 45 44 41 43 44 41 33 23 17 12 8 7 5 4 3 3 3 3 3 2 2 2 2 2 2 2 2
84 92 100 100 95 85 92 98 93 93 72 61 46 34 40 36 34 36 37 34 27 21 16 12 8 6 5 4 3 3 2 3 3 3 2 2 2 2 2 2 2 2 2
88 84 82 73 76 72 73 81 65 47 41 40 44 33 31 34 33 28 24 20 14 10 7 6 5 4 3 2 2 2 2 2 2 2 2 2 2 2 2 2 2 2 2
68 63 60 63 70 61 45 45 39 34 39 36 30 30 28 24 20 15 11 8 6 5 5 3 3 2 2 2 2 2 2 2 2 2 2 2 2 2 2 2 2 2 2

GFSGL_250_rhum_063.txt.gz
RH
75 65 66 92 100 100 99 100 100 89 77 91 62 73 78 59 99 73 70 48 69 76 92 100 100 100 100 100 100 99 72 62 76 85 74 87 98 89 81 75 68 68 70
78 66 97 96 73 85 92 86 100 100 63 100 100 100 100 96 90 92 76 70 65 100 100 100 100 100 100 100 96 77 83 72 67 70 100 100 92 84 79 77 73 71 85
100 100 100 100 100 100 100 100 100 100 97 79 100 100 100 100 100 100 96 84 94 100 100 100 100 100 100 83 68 54 60 78 93 94 92 90 87 82 84 90 85 91 85
88 100 100 100 95 98 97 100 100 100 87 54 50 86 100 100 91 85 100 100 100 100 100 100 95 74 68 60 62 72 84 90 87 81 85 85 85 83 77 78 85 90 87
45 94 100 95 86 84 100 90 94 99 100 100 100 96 94 96 97 100 100 100 100 100 96 86 65 61 69 64 59 62 70 71 73 76 86 84 79 83 79 79 77 83 83
51 62 97 100 100 100 100 100 100 100 100 100 100 100 100 100 100 100 100 100 100 73 65 63 62 53 58 64 66 72 73 75 74 77 96 93 95 90 82 78 83 77 73
44 39 88 100 100 100 100 100 100 100 100 100 100 100 100 98 79 70 63 57 52 50 50 52 56 64 62 66 76 69 71 76 80 90 98 99 94 91 76 82 73 64 70
54 59 69 87 94 100 100 100 98 92 88 85 68 57 56 60 54 49 52 54 53 58 62 69 71 68 77 76 83 86 78 83 90 96 92 94 91 86 79 70 66 55 54
61 45 38 37 39 41 38 36 34 33 36 41 44 46 46 47 48 50 51 56 59 60 72 75 80 84 84 87 88 97 93 89 98 100 94 97 94 87 68 63 55 48 46
84 70 48 51 47 40 40 42 44 43 41 37 37 38 39 43 44 41 40 45 49 57 66 70 77 82 87 92 97 84 80 92 90 94 99 99 94 75 68 59 55 44 47
62 61 99 79 65 70 70 68 59 52 49 51 48 47 49 62 65 56 45 41 55 64 63 78 94 95 95 96 93 92 91 93 86 96 99 92 76 69 65 66 55 58 45
51 48 66 99 96 76 73 78 84 87 87 69 67 69 70 67 67 64 51 45 59 62 67 88 98 88 92 92 94 92 88 83 88 96 79 67 61 63 66 67 74 64 43
63 62 53 51 80 82 78 82 87 80 75 93 89 76 72 74 76 64 49 61 66 65 79 83 86 85 85 99 91 92 90 88 82 77 77 58 62 74 73 74 71 44 27
89 79 71 57 62 77 84 87 85 85 76 80 100 100 99 87 80 60 62 74 87 83 87 92 95 89 100 98 98 100 71 72 76 69 61 61 69 67 68 55 35 22 14
100 100 99 80 85 93 82 72 70 71 78 99 100 100 99 100 86 66 69 94 94 89 100 100 100 100 100 100 100 83 78 76 67 61 57 58 56 54 46 29 17 12 8
97 99 97 94 99 94 79 76 84 92 100 100 100 100 99 96 70 69 84 99 97 100 100 100 100 100 100 100 76 70 77 61 55 56 52 47 46 40 28 18 11 7 6
100 100 98 100 100 90 96 96 100 100 100 100 100 100 100 81 62 87 94 92 100 100 100 100 100 100 100 95 69 68 54 52 51 46 42 43 32 21 15 10 8 6 4
100 100 100 100 99 100 100 100 100 100 100 100 100 93 77 62 74 85 98 100 100 100 100 100 100 91 93 81 51 44 48 48 39 35 36 23 16 12 8 7 5 4 4
100 100 100 99 98 100 100 100 100 100 98 92 85 76 68 87 97 100 100 100 100 100 100 99 96 87 66 48 41 44 41 34 32 27 17 13 9 7 6 5 4 4 3
100 100 100 100 100 96 90 100 92 81 90 87 77 78 88 99 100 100 100 100 99 100 100 93 68 48 38 38 38 34 31 26 18 13 10 8 6 5 4 4 3 3 3
95 89 77 72 67 74 80 84 90 87 87 83 95 100 100 100 100 100 100 93 92 75 75 48 33 33 34 30 29 25 21 14 10 8 7 5 4 3 3 3 3 3 2
84 82 88 99 100 100 100 97 96 100 100 100 100 100 100 100 95 76 79 69 61 51 32 30 29 27 24 23 18 13 9 7 6 5 4 3 3 3 3 3 3 2 2
95 98 100 98 89 94 100 99 87 94 97 94 96 100 86 67 68 60 47 42 29 27 26 24 22 22 18 13 9 7 6 5 4 3 3 3 3 3 3 2 2 2 2
97 94 87 90 91 78 75 83 86 87 86 78 65 70 78 63 42 36 27 23 21 23 22 18 14 12 9 7 5 4 4 3 3 3 3 3 2 2 2 2 2 2 2
75 74 75 76 77 83 84 77 71 61 59 64 67 49 33 30 24 22 21 21 18 14 11 9 7 6 5 4 3 2 2 3 3 3 2 2 2 2 2 2 2 2 2
65 72 74 69 66 63 55 56 57 56 57 38 28 26 22 20 19 18 16 11 9 8 6 5 4 4 3 2 2 2 2 2 2 2 2 2 2 2 2 2 2 2 2

GFSGL_250_rhum_069.txt.gz
RH
28 39 54 89 100 100 96 93 75 82 88 87 85 85 82 73 73 74 74 61 47 37 32 31 33 36 40 54 74 98 100 100 100 100 100 98 91 69 64 82 94 93 100
32 30 40 57 80 94 98 98 84 78 70 59 55 53 49 53 58 57 58 62 42 43 59 100 85 70 74 90 100 100 100 100 100 100 86 70 74 94 90 85 94 95 84
36 31 30 36 47 60 74 75 77 67 54 52 52 51 43 47 36 40 40 40 53 72 71 74 100 96 100 100 100 100 100 100 97 86 77 77 83 74 81 92 97 95 99
44 40 31 30 36 51 61 66 72 70 93 89 70 57 50 40 40 47 54 66 76 73 75 100 87 87 100 100 100 100 75 68 60 54 56 68 76 76 77 86 84 90 87
44 42 38 33 31 33 42 67 92 99 87 89 74 73 65 67 77 93 98 98 98 100 100 100 100 100 100 76 54 56 55 52 55 54 54 56 61 66 77 76 76 84 100
58 46 39 36 34 36 35 39 44 56 73 82 84 88 90 100 100 100 100 100 100 100 93 83 51 47 50 57 57 58 62 74 80 82 69 67 74 80 68 69 66 91 91
63 58 51 37 38 43 37 35 39 39 34 34 59 78 59 65 72 60 43 39 43 48 50 52 54 58 63 69 72 79 77 80 85 91 81 74 67 65 70 69 72 82 81
59 69 68 59 56 58 68 48 53 47 47 41 41 42 42 43 46 50 55 57 62 69 76 80 84 88 94 98 98 97 93 91 87 90 90 82 76 70 77 73 77 86 86
95 64 73 59 71 76 84 90 73 71 53 47 54 66 70 72 71 73 76 78 81 86 94 99 100 98 95 92 90 84 87 83 84 86 91 100 94 86 88 78 85 84 90
100 93 75 88 80 88 86 81 93 97 91 74 74 88 96 100 98 93 92 99 100 100 100 100 100 100 100 100 96 92 89 84 81 95 97 96 100 92 88 86 85 88 92
100 94 82 76 84 100 100 92 97 98 100 100 99 99 94 94 97 100 100 95 93 94 89 97 100 100 100 94 92 89 92 95 96 94 99 100 96 92 83 88 86 98 96
100 100 100 100 100 100 100 100 95 82 98 100 100 100 100 100 100 100 100 99 99 97 100 100 100 100 96 90 94 94 96 96 98 96 100 100 100 88 89 88 97 91 94
100 100 100 100 100 100 100 100 100 86 99 100 99 97 100 100 88 81 87 93 100 100 100 100 100 100 98 100 99 96 95 95 97 100 100 100 92 91 84 82 88 94 100
100 100 100 100 100 100 99 80 100 89 100 100 100 87 97 97 100 100 100 100 100 100 100 100 100 91 88 97 99 100 100 97 100 99 99 94 86 75 77 80 93 100 98
100 100 100 100 100 100 100 100 100 100 100 95 97 100 100 100 100 100 100 100 100 91 94 97 85 96 100 100 96 90 98 85 86 100 93 80 72 79 76 93 94 92 70
100 100 100 100 100 100 100 100 100 100 99 96 100 100 99 100 100 100 100 100 98 90 85 93 95 100 91 82 77 90 76 82 95 86 70 71 78 87 94 94 89 64 44
100 100 100 100 100 100 100 100 100 100 100 100 99 85 94 100 100 98 100 89 98 89 91 81 96 78 79 75 82 80 89 90 72 69 77 88 85 89 92 84 52 33 30
100 100 100 100 100 100 100 99 99 99 100 98 97 100 100 99 99 99 97 84 83 95 98 75 76 90 80 82 80 84 85 73 79 93 83 79 82 77 48 33 28 25 21
100 100 100 100 100 100 98 99 91 98 100 96 100 100 100 100 100 100 100 100 100 100 100 100 96 87 86 84 82 97 78 78 73 69 72 58 41 32 26 21 19 13 9
88 100 80 76 97 100 92 88 94 100 100 100 99 100 97 100 100 100 100 100 100 96 86 74 73 74 75 78 86 77 61 54 54 45 37 25 22 20 15 13 8 6 6
100 100 100 100 67 84 94 90 86 80 88 83 91 96 93 76 74 88 83 64 72 71 68 75 77 74 78 70 72 45 50 48 32 25 20 19 14 12 7 5 5 4 4
83 99 100 99 90 80 81 72 64 57 58 55 60 60 62 73 65 52 56 63 71 74 77 67 64 57 60 54 46 45 34 23 19 18 14 10 7 5 4 4 3 3 2
79 86 88 91 91 96 89 77 70 67 51 41 40 47 55 60 69 68 67 67 64 58 54 50 46 43 40 36 26 21 18 17 13 9 6 5 4 3 2 2 2 2 2
65 68 74 79 76 85 73 69 79 63 56 61 52 48 51 48 50 51 48 46 44 43 44 38 35 27 22 18 16 14 11 8 5 4 4 3 2 2 2 2 2 2 2
64 63 58 52 56 65 61 60 48 30 31 32 27 28 38 40 34 32 29 26 26 29 26 18 15 15 16 13 9 6 5 4 3 3 2 2 2 2 2 2 2 2 2
40 48 48 41 32 32 32 32 27 22 21 28 32 31 26 28 25 21 22 19 13 14 14 14 13 10 8 5 4 4 3 2 2 2 2 2 2 2 2 2 2 2 2

GFSGL_250_rhum_072.txt.gz
RH
37 32 29 28 42 73 97 100 83 84 90 83 82 89 86 69 68 62 65 56 60 61 47 52 50 42 40 54 50 48 61 54 75 85 74 100 100 100 85 53 55 60 61
34 36 36 31 30 34 54 87 100 100 100 100 99 84 69 73 69 71 68 64 58 65 53 43 52 73 62 79 68 81 93 59 67 70 100 100 100 97 54 59 80 85 84
67 44 37 39 33 30 32 43 66 83 98 100 100 100 96 62 61 58 66 66 63 53 52 62 80 92 98 100 90 97 70 92 100 100 100 95 60 63 76 89 94 92 87
68 78 56 46 45 34 30 30 38 46 56 69 74 79 76 77 87 96 98 96 76 75 70 60 60 81 94 100 94 99 92 100 100 97 55 66 76 80 99 100 100 100 87
55 61 80 73 56 48 35 30 29 36 41 50 65 78 86 99 100 100 92 78 71 57 61 85 99 100 100 100 100 100 100 82 59 70 80 95 100 100 100 99 92 76 83
70 63 60 89 88 62 56 38 38 34 35 37 42 57 83 89 89 89 83 78 94 100 100 100 100 99 85 78 60 58 65 82 90 92 99 100 100 98 93 90 76 86 85
78 78 58 78 88 81 68 77 65 58 56 44 39 44 39 33 31 33 37 39 40 42 48 52 56 60 65 72 76 80 86 88 100 100 97 90 93 98 83 86 97 100 99
83 74 65 62 93 91 75 63 81 75 72 69 69 60 51 54 52 53 50 57 66 70 72 74 76 76 74 76 80 89 97 100 100 100 100 100 93 94 94 96 92 88 91
98 99 64 57 93 100 100 99 84 78 83 83 82 82 69 71 87 78 79 74 79 76 82 86 84 82 95 100 100 100 100 100 100 94 94 95 99 100 100 98 91 99 94
100 81 60 67 92 100 100 100 100 100 82 86 92 96 75 70 78 87 85 84 81 86 88 99 100 100 100 100 100 100 100 99 95 98 95 100 94 100 97 95 93 100 100
97 82 66 60 100 100 100 100 100 100 100 100 100 100 100 94 92 96 98 95 98 100 100 100 100 100 100 96 89 97 93 80 83 94 99 95 98 100 88 96 95 91 98
92 87 67 75 79 98 100 100 100 100 100 100 98 100 100 100 100 100 100 100 100 100 100 100 100 96 99 100 100 100 100 100 100 100 99 100 98 88 92 99 87 92 87
100 80 64 82 92 100 100 100 100 100 100 100 100 100 100 100 100 100 100 100 100 100 100 100 100 100 100 100 100 100 100 100 100 96 100 83 93 100 97 86 92 78 84
92 100 95 73 99 100 100 100 100 100 100 100 100 100 100 100 100 100 100 100 100 100 87 88 100 100 100 100 100 100 100 100 100 92 100 98 93 95 88 94 74 80 72
100 100 100 100 100 100 100 100 100 100 100 100 100 100 100 100 100 100 100 100 100 100 100 100 100 100 100 100 100 100 100 94 94 97 76 95 96 80 88 71 81 88 88
100 100 100 100 100 100 100 99 100 100 100 100 100 100 100 100 100 100 100 100 100 100 100 100 100 100 100 100 100 100 100 80 72 83 100 100 100 100 80 87 85 78 84
100 100 100 100 100 100 100 100 100 100 100 100 100 100 100 100 100 100 99 98 100 98 96 98 100 100 100 100 88 69 71 83 99 100 100 100 98 83 77 82 74 84 74
100 100 100 100 100 100 100 100 100 100 100 100 98 86 90 94 100 100 96 94 94 92 87 80 86 90 92 98 100 100 98 97 99 96 79 65 69 70 61 64 66 53 46
99 78 92 100 100 100 100 100 94 100 100 100 100 97 95 95 95 96 96 90 97 100 96 98 100 100 99 97 99 90 78 70 75 62 47 50 48 45 49 39 36 32 30
78 97 100 89 97 93 100 95 100 100 100 100 100 97 86 75 76 78 76 69 65 78 89 87 84 78 70 64 57 54 49 48 43 39 38 32 33 33 25 22 22 20 17
60 79 88 98 94 96 100 90 97 100 100 100 90 92 91 76 64 67 66 64 64 63 67 63 58 57 44 40 38 34 31 33 33 28 27 22 20 19 19 17 14 11 7
63 72 78 81 88 90 99 100 100 100 100 100 100 100 85 98 90 86 82 73 60 65 58 49 45 42 36 27 26 29 29 29 25 20 18 14 16 14 12 10 6 5 4
49 57 64 77 89 89 92 87 89 94 94 92 74 73 76 78 73 66 53 47 43 34 31 30 28 25 25 25 25 24 21 18 17 14 14 13 11 8 5 4 4 3 2
57 52 56 52 50 48 54 53 48 54 68 69 66 67 66 63 56 50 37 32 32 27 24 24 22 18 17 17 15 14 14 13 13 12 9 6 4 4 3 3 2 2 2
57 62 74 73 74 71 68 52 47 59 58 62 59 54 49 41 24 24 27 30 23 22 22 15 14 12 10 10 10 11 10 9 8 5 4 3 3 2 2 2 2 2 2
49 46 43 41 32 34 33 36 38 35 36 38 32 25 23 24 26 22 20 16 13 12 12 10 9 9 10 10 8 7 5 4 4 3 2 2 2 2 2 2 2 2 2

GFSGL_250_rhum_075.txt.gz
RH
33 42 42 38 37 29 28 43 94 99 86 100 100 100 100 100 100 100 100 100 100 87 72 83 86 90 73 75 70 44 56 47 40 49 55 52 53 49 78 71 95 94 99
44 43 50 57 49 42 31 30 29 52 92 96 81 99 100 100 78 65 67 71 90 85 87 95 79 85 84 58 60 74 80 87 62 100 87 94 67 69 63 86 100 91 92
52 53 55 51 70 60 51 44 32 29 32 63 92 96 97 98 90 81 88 96 100 70 99 93 99 100 83 82 97 83 70 72 64 78 100 100 100 84 100 94 100 100 100
60 56 59 52 53 47 59 66 59 34 32 30 42 62 74 88 98 100 100 91 90 96 100 100 100 100 100 96 75 71 72 98 98 96 100 94 93 81 78 99 100 100 100
97 73 71 70 62 51 47 52 85 72 53 40 40 35 42 48 68 89 94 97 96 100 100 100 100 100 96 64 69 95 100 100 100 64 66 74 77 86 100 100 100 95 88
100 100 95 86 72 71 55 45 67 83 83 73 81 63 50 39 43 44 47 60 79 95 81 66 70 38 37 47 100 100 99 62 70 72 78 87 100 100 95 89 84 96 100
82 100 100 100 100 92 75 50 38 61 76 80 75 76 79 79 77 65 57 59 56 44 43 45 49 58 66 70 73 80 85 86 89 87 91 95 94 73 80 89 100 96 81
77 100 100 100 92 96 76 68 48 46 70 100 96 91 61 64 71 76 73 72 82 69 60 68 79 68 65 81 80 73 86 90 83 75 78 92 89 89 90 88 90 95 100
60 100 100 100 100 94 87 88 63 54 45 86 100 100 100 97 82 62 44 58 62 54 74 80 67 70 77 75 79 93 85 90 100 100 89 99 98 100 100 100 95 89 99
85 99 100 100 100 100 96 94 80 67 59 54 70 100 100 100 98 99 100 99 60 61 76 74 84 100 100 100 100 100 100 100 100 100 100 100 100 100 98 90 100 100 100
96 100 100 100 100 100 89 95 97 80 71 58 91 94 97 100 100 100 100 100 98 100 100 100 100 100 100 100 100 100 100 100 100 100 100 97 82 64 100 100 100 100 100
100 100 84 98 97 100 100 100 97 88 77 72 86 89 86 76 75 79 75 69 94 100 100 100 100 100 100 100 100 100 100 100 100 100 100 100 100 100 100 100 100 100 100
99 100 100 100 100 100 100 100 98 94 86 78 88 97 85 96 92 98 98 96 94 81 80 86 99 100 99 92 95 100 100 100 100 100 100 100 98 100 100 100 100 100 100
100 100 100 100 100 100 100 100 100 100 100 92 88 100 100 100 100 100 100 100 100 100 100 100 100 100 100 100 100 100 100 100 100 100 100 100 100 100 100 100 100 99 94
71 94 94 94 98 100 100 100 100 100 100 100 94 100 100 100 100 100 87 89 94 95 100 100 99 98 94 97 100 100 100 95 99 100 100 100 100 98 100 94 95 85 76
77 97 100 100 100 100 100 100 100 100 100 100 100 100 100 99 98 100 100 100 96 91 82 77 94 100 98 97 100 87 86 97 96 96 99 89 89 92 100 98 99 97 81
60 70 87 96 97 95 94 100 100 100 100 100 100 100 100 100 100 100 100 100 100 100 83 77 83 72 78 92 81 85 75 74 83 98 93 92 82 91 90 75 82 70 66
35 37 43 50 55 69 90 99 100 100 100 100 100 100 100 100 100 100 100 100 100 100 100 100 100 100 98 100 100 92 96 84 71 69 82 83 80 65 55 56 57 47 36
54 47 29 45 65 56 73 98 100 100 100 100 100 100 99 100 100 100 100 100 100 100 100 100 100 93 83 76 74 72 69 67 70 79 78 64 51 48 47 38 26 23 21
71 49 36 62 100 79 68 96 100 100 100 80 78 72 80 97 96 100 100 100 100 99 90 87 86 78 93 85 70 83 82 83 86 70 54 41 34 35 27 21 16 13 15
27 32 40 70 79 83 100 100 100 100 100 99 100 100 100 100 100 94 84 89 82 88 94 100 100 100 100 83 98 66 52 42 44 45 37 27 24 29 15 13 11 10 9
21 24 34 57 68 61 99 100 100 100 100 100 100 100 94 88 94 98 100 100 100 100 100 100 100 100 94 74 65 50 38 30 30 29 25 21 15 12 11 10 9 8 7
28 34 59 61 60 49 45 53 69 81 78 73 84 100 86 76 88 96 100 100 100 100 100 100 88 74 54 42 37 29 23 27 26 22 12 11 11 10 9 7 6 5 4
31 33 38 47 52 54 47 40 44 56 54 62 65 76 85 96 93 91 92 100 100 100 99 72 43 41 24 22 21 17 18 17 13 10 9 9 8 7 5 4 4 3 2
33 34 36 52 66 75 72 75 62 57 60 67 69 70 75 72 66 57 50 41 35 31 26 22 19 18 15 15 18 13 10 9 9 8 8 6 4 4 3 3 2 2 2
29 32 34 35 39 42 47 55 56 54 55 57 60 57 55 54 42 33 30 32 30 25 19 14 12 12 10 10 8 8 8 8 7 5 4 4 3 2 2 2 2 2 2

GFSGL_250_rhum_078.txt.gz
RH
100 90 40 42 35 26 29 28 29 45 74 100 94 81 100 99 76 79 95 89 94 100 100 100 100 100 100 99 100 77 82 92 97 71 70 74 79 58 52 40 35 51 63
93 100 64 35 49 36 29 31 30 30 27 31 85 100 86 87 100 100 100 100 100 100 100 92 87 99 100 77 79 93 77 74 78 69 78 100 82 70 56 59 59 61 78
36 62 93 55 49 52 39 44 38 35 39 32 27 32 48 70 83 87 100 100 98 96 92 91 95 93 87 67 81 90 88 98 97 89 96 90 61 53 52 60 90 78 98
24 29 56 83 74 65 62 50 43 44 37 38 46 38 36 38 38 46 61 73 84 78 76 84 88 89 89 95 83 88 99 93 76 75 56 42 48 60 78 78 81 98 99
28 26 25 28 62 98 80 64 60 50 49 50 48 55 63 66 65 61 47 38 43 55 66 71 72 73 78 94 97 93 67 70 50 47 60 64 68 79 92 100 100 100 100
30 28 26 23 24 66 100 100 89 74 58 56 47 43 56 67 79 79 74 75 74 70 52 43 41 36 36 40 55 48 54 64 70 88 100 100 100 89 91 82 74 94 75
46 45 43 35 27 29 66 100 100 100 78 63 68 60 54 55 92 100 100 81 70 77 87 91 87 98 94 88 69 70 84 98 91 96 100 85 95 95 100 100 96 90 91
86 72 58 56 43 29 28 63 96 100 100 100 92 66 60 69 56 48 56 89 100 100 100 99 94 100 100 92 91 94 88 90 100 100 100 100 100 100 100 100 100 100 100
76 78 73 65 52 47 36 50 58 90 100 100 88 95 74 81 71 65 49 47 50 67 85 100 98 100 100 100 100 100 100 100 96 88 92 91 89 99 100 100 100 100 100
100 100 98 78 68 50 42 39 85 100 100 100 100 100 71 92 86 72 63 53 47 52 45 35 59 78 86 87 80 77 88 89 82 100 100 100 100 100 100 100 100 99 80
97 94 92 85 76 73 56 47 38 70 100 100 100 97 89 94 97 79 74 69 58 52 55 66 66 60 63 63 63 72 81 93 100 100 100 100 100 98 100 100 97 98 100
78 74 60 67 85 82 88 84 88 82 72 86 99 80 97 95 100 100 94 83 77 72 84 70 66 61 58 70 75 80 71 72 72 76 86 97 93 94 96 79 74 82 97
100 100 100 100 100 100 100 100 100 100 100 78 89 98 100 100 100 100 100 100 100 95 100 100 99 94 69 70 78 81 92 99 95 92 96 100 98 85 77 86 99 90 77
100 100 100 100 100 100 100 95 100 100 100 100 100 100 100 100 100 100 100 100 100 100 100 100 100 100 100 100 100 100 98 87 85 76 81 65 92 99 95 74 68 85 92
100 99 89 79 80 74 68 73 78 80 85 87 80 80 92 100 100 100 100 100 100 100 100 100 100 100 100 96 87 74 92 88 86 90 94 77 61 77 92 100 100 95 100
54 56 60 61 61 64 67 66 73 93 99 100 100 85 90 100 98 100 97 100 100 100 100 100 100 100 100 98 100 88 98 100 100 100 100 100 100 100 100 100 91 99 76
22 23 26 31 34 42 57 70 78 85 91 100 100 100 100 100 100 100 100 100 100 100 100 100 100 100 100 100 100 100 100 100 100 100 100 100 100 100 100 75 95 79 90
21 22 27 22 34 49 38 54 76 97 97 93 87 100 100 84 100 100 100 100 100 100 100 100 100 100 100 100 100 100 100 100 100 100 100 100 96 93 84 76 87 100 69
17 18 21 24 28 42 44 30 49 100 95 91 63 55 97 100 87 80 95 100 100 100 100 98 100 97 94 92 82 92 96 100 96 96 98 81 74 79 79 96 75 46 44
12 12 14 18 25 28 51 77 72 70 44 48 44 50 60 64 62 69 78 80 100 100 83 80 82 80 73 66 60 63 57 63 76 73 85 92 85 82 71 60 41 32 35
17 16 17 18 20 26 66 73 88 100 100 87 71 74 71 72 66 78 87 100 100 100 100 100 100 88 87 92 100 100 84 79 86 78 69 75 70 53 48 42 36 28 23
21 21 21 26 32 34 46 86 76 68 72 63 76 90 92 87 100 100 100 91 94 100 100 99 98 95 90 98 100 97 67 58 71 78 64 67 65 59 47 35 18 20 16
17 18 21 24 28 50 55 44 57 74 62 59 66 90 94 97 98 100 100 100 100 100 100 96 86 92 94 89 79 54 51 56 52 48 45 40 37 24 16 14 10 9 10
15 16 18 21 23 25 29 33 37 33 35 43 50 49 64 68 73 75 78 73 81 95 88 82 72 63 56 51 40 31 26 32 35 28 22 16 15 12 9 9 9 6 4
16 16 17 20 23 26 29 28 30 32 31 35 35 28 27 37 56 54 45 34 34 41 40 35 27 26 25 27 28 27 23 14 13 14 10 9 9 9 8 5 4 4 3
16 17 18 18 19 20 22 22 22 24 26 28 28 29 29 28 31 30 29 29 30 27 29 31 31 26 20 14 14 13 11 9 9 9 8 7 6 5 4 3 3 2 2

GFSGL_250_rhum_081.txt.gz
RH
29 47 69 64 60 32 28 32 31 33 32 29 43 58 54 56 64 68 68 70 94 99 92 86 83 80 79 87 97 100 100 100 100 100 100 85 96 85 91 79 64 65 66
26 23 27 31 33 72 43 27 33 32 35 33 32 29 31 62 94 90 90 100 100 92 66 72 97 99 100 100 100 100 95 96 90 73 84 100 88 94 100 75 77 76 58
41 37 24 24 27 36 61 64 50 44 36 28 30 33 38 32 27 49 88 91 81 90 97 100 100 100 98 86 87 91 82 78 79 72 74 75 76 74 70 54 47 55 64
77 57 35 28 24 25 27 27 55 62 56 51 51 36 28 34 41 38 34 32 34 39 42 46 52 59 67 72 68 69 70 63 69 75 72 66 52 43 50 61 68 64 54
78 67 62 38 35 27 25 24 26 28 56 85 70 63 49 40 35 34 41 42 46 50 52 61 63 54 47 44 41 40 43 57 50 40 39 42 49 70 92 71 65 87 98
96 87 78 58 38 38 32 31 31 28 28 88 100 99 81 74 58 54 45 41 54 57 60 70 73 68 72 69 77 77 76 97 88 77 85 81 99 100 97 72 84 83 70
90 87 72 46 43 48 37 40 40 38 34 35 40 80 96 100 94 78 78 66 49 39 48 53 44 64 82 88 86 92 94 93 96 100 100 99 100 100 100 95 100 100 100
82 77 74 60 69 70 73 69 60 46 40 36 32 34 34 72 100 100 98 98 81 63 49 49 52 49 45 46 60 77 86 100 100 100 100 100 100 100 100 100 100 100 100
87 77 87 96 99 98 91 86 68 52 50 52 48 43 35 49 62 100 100 100 100 89 63 88 68 53 56 61 54 50 54 58 61 87 100 100 100 95 85 80 86 74 84
100 100 100 100 100 100 100 89 84 99 100 81 78 68 59 51 55 64 99 100 100 100 88 71 96 98 69 67 66 51 55 62 87 97 99 92 73 65 70 74 64 76 80
92 76 70 75 76 65 63 74 80 74 86 89 81 61 62 66 100 96 100 100 98 98 94 92 76 97 100 75 82 78 67 45 57 54 49 48 56 67 73 68 71 68 70
56 75 96 100 100 100 100 100 100 91 89 74 77 86 94 70 70 78 99 100 100 100 99 94 99 100 100 99 93 76 84 81 78 68 80 71 48 54 59 75 86 97 91
99 100 100 100 89 96 89 84 54 55 69 76 86 86 98 84 85 98 100 100 100 100 100 90 100 90 90 98 99 100 100 100 100 100 100 81 72 88 100 96 67 66 59
100 100 100 88 86 86 79 88 93 98 100 100 100 100 100 100 100 100 100 100 100 100 100 99 100 100 100 100 100 100 100 100 100 91 100 100 100 100 100 92 70 70 100
72 67 70 68 67 64 67 79 95 100 100 100 100 100 100 100 82 87 85 91 93 91 100 100 87 100 86 100 100 100 100 99 79 100 96 100 100 100 96 79 100 100 100
61 69 79 86 98 90 91 72 68 65 81 91 100 100 100 100 100 92 92 99 100 100 100 100 99 92 100 100 100 100 100 99 91 100 100 100 100 100 100 100 100 100 100
48 46 41 38 32 31 27 26 26 33 40 49 60 65 70 85 75 83 72 78 97 100 100 100 100 100 100 100 99 100 100 100 100 100 100 100 99 100 100 100 94 100 81
26 24 23 22 20 22 20 20 21 22 24 30 32 32 40 91 89 100 100 90 81 89 90 100 100 100 100 100 100 100 100 100 100 100 100 100 100 100 86 72 66 57 62
22 24 20 18 17 16 15 17 17 19 21 24 29 30 38 90 100 72 62 96 94 80 100 100 96 90 99 100 100 100 98 98 99 100 92 77 77 72 67 57 54 70 66
16 15 14 12 12 12 12 12 14 14 16 21 24 27 31 73 100 100 100 100 100 100 96 100 100 100 100 100 97 98 100 88 66 66 57 57 56 55 55 68 76 73 70
15 14 12 12 12 14 14 14 16 16 18 19 21 36 36 71 75 71 94 100 100 100 86 79 72 85 84 77 70 62 70 72 67 48 41 44 72 84 78 70 68 58 66
15 15 15 16 16 15 17 19 21 24 23 24 31 46 38 47 64 72 96 100 100 95 86 73 52 39 40 34 38 42 50 50 57 63 66 69 70 79 60 52 41 41 46
13 13 11 11 13 14 14 15 18 22 26 28 26 25 29 34 46 39 35 29 32 40 44 42 47 45 44 43 46 50 62 69 64 49 45 51 48 38 35 33 32 19 16
10 9 8 8 9 11 13 14 16 18 22 26 29 34 40 45 46 54 59 51 56 57 58 52 46 49 46 41 44 55 52 46 46 42 38 27 22 28 22 13 12 10 8
7 7 7 7 8 9 10 11 13 14 16 18 22 23 30 36 44 53 51 51 52 62 68 49 45 45 33 26 29 39 41 30 21 18 20 22 15 10 11 8 8 6 5
6 7 8 8 9 10 11 11 12 13 13 13 14 16 20 22 29 34 36 42 43 38 36 38 37 30 24 20 17 16 16 17 16 13 10 10 9 7 6 6 4 4 3

GFSGL_250_rhum_087.txt.gz
RH
58 42 45 32 30 33 36 38 30 29 23 23 26 33 31 24 23 24 25 29 23 24 29 37 46 62 76 87 91 93 91 86 87 100 100 100 100 85 84 77 90 100 100
100 93 67 58 42 32 42 40 36 35 29 25 26 30 36 36 36 32 29 34 56 35 28 28 35 54 76 80 81 80 73 91 85 95 97 97 87 91 90 72 83 98 95
100 100 87 62 48 43 43 52 55 51 52 46 33 32 28 31 41 45 59 50 62 65 65 50 45 39 32 31 33 35 38 40 42 40 48 47 49 42 42 42 45 46 46
100 100 100 100 100 100 90 81 65 78 88 67 63 54 38 36 33 33 36 34 52 86 83 65 68 67 66 60 53 44 44 43 45 46 50 63 68 73 79 80 76 79 79
100 100 100 100 100 92 97 72 68 73 92 74 72 66 58 57 48 39 38 46 44 48 59 83 81 82 77 72 72 72 69 57 47 50 45 44 54 52 57 73 80 98 100
100 100 100 100 100 96 93 82 75 66 68 74 64 61 60 61 58 56 46 45 53 67 64 49 56 52 92 81 97 89 85 86 90 81 69 66 57 72 73 68 62 56 55
100 100 100 100 100 100 100 100 99 98 86 94 85 91 87 62 66 63 66 57 61 53 65 77 74 72 69 61 57 54 56 60 88 100 100 100 100 79 69 70 72 79 85
100 100 100 100 100 98 100 100 100 100 100 100 100 100 100 96 83 80 84 81 58 59 70 92 78 70 75 64 64 71 66 67 82 86 92 99 100 100 100 90 84 98 92
70 77 87 92 87 97 99 100 100 100 100 100 100 100 100 100 100 99 96 84 72 62 59 82 68 93 82 73 78 79 69 92 98 96 100 86 98 100 100 100 78 84 94
100 100 100 100 100 91 87 94 97 91 82 84 94 98 100 100 99 100 99 100 100 100 100 100 85 90 95 100 98 99 75 54 76 100 97 88 87 88 99 98 91 100 100
100 100 100 100 98 100 100 100 93 76 76 94 100 100 100 100 100 87 100 100 100 100 100 97 100 100 90 100 95 100 78 64 64 47 53 99 100 100 100 99 95 100 100
81 98 100 91 94 100 99 94 74 66 72 100 100 100 100 100 100 100 97 86 97 100 100 100 100 100 100 100 90 98 100 100 100 91 81 80 94 93 91 93 100 100 77
45 38 65 89 80 90 85 68 52 60 86 96 92 74 72 78 96 91 86 73 78 81 87 99 100 100 100 100 100 93 100 100 100 100 100 100 97 79 100 100 100 100 100
66 52 52 49 44 46 44 61 82 74 66 67 70 59 58 66 76 81 89 98 100 100 100 98 100 100 100 100 100 100 100 100 100 100 98 100 100 100 100 100 100 100 100
95 93 96 94 76 78 80 76 86 91 74 66 97 84 68 72 75 92 100 100 100 100 100 100 100 100 100 100 91 100 100 100 100 100 100 97 100 100 96 100 100 100 100
100 100 98 89 84 93 95 72 63 94 100 100 100 99 97 100 100 100 99 92 100 100 100 100 99 89 100 100 100 94 100 100 100 100 100 100 100 100 100 100 100 100 100
72 75 82 86 78 75 95 100 100 100 100 99 99 97 75 83 89 81 74 66 58 56 54 49 44 48 59 60 94 78 62 92 100 100 100 100 100 100 100 100 100 100 100
81 76 80 79 79 77 81 94 86 74 72 70 81 79 64 50 46 48 46 41 35 25 19 18 19 20 22 24 28 29 27 33 43 79 96 93 88 99 100 100 100 100 100
68 78 85 84 80 79 84 90 91 84 61 48 42 37 37 32 26 22 19 19 18 18 18 17 15 15 17 19 22 25 26 28 31 35 34 36 46 93 100 92 99 100 78
92 82 79 80 79 75 68 60 55 51 44 34 28 23 19 18 18 20 19 18 14 12 11 11 12 13 12 14 15 16 18 20 25 30 33 40 39 43 54 43 50 49 50
59 58 57 54 51 48 41 34 26 20 19 18 18 19 20 19 18 15 13 12 12 10 11 12 12 13 14 14 13 14 16 18 20 23 24 23 28 32 36 36 46 45 50
32 28 26 23 20 18 18 18 20 20 19 18 17 16 14 12 11 10 10 10 10 11 11 13 14 14 15 16 16 15 16 17 17 17 17 18 22 24 23 22 24 27 27
20 20 20 20 20 19 18 16 15 14 13 12 11 11 10 9 9 9 9 12 13 11 10 11 12 12 12 12 13 14 14 15 16 16 15 15 14 15 18 20 19 22 22
17 15 14 14 14 12 11 10 10 10 11 11 10 9 8 7 6 5 5 5 6 7 8 8 8 8 9 10 10 11 11 12 13 13 14 15 16 16 16 19 18 17 17
12 11 12 12 12 12 10 10 8 7 6 5 5 5 5 5 5 5 5 5 6 6 6 6 7 8 9 10 12 12 13 13 13 12 13 13 13 12 12 10 10 10 10
8 7 7 6 6 6 6 6 6 6 6 6 7 7 7 7 7 7 8 8 8 8 8 8 8 8 9 9 9 9 10 10 9 9 10 10 8 8 8 8 8 8 7

GFSGL_250_rhum_090.txt.gz
RH
79 100 66 44 38 31 28 27 27 27 24 25 26 24 25 25 25 24 24 23 22 26 33 40 26 25 26 33 46 63 71 72 93 100 100 98 93 89 97 97 96 98 100
100 100 98 82 48 42 36 30 35 37 34 32 39 41 37 34 32 28 27 27 27 28 30 36 49 59 51 36 34 28 28 33 35 64 69 60 43 52 48 42 43 44 47
100 100 100 100 99 75 59 42 40 42 50 53 54 59 66 65 54 41 34 34 31 33 36 44 43 64 68 62 59 55 50 45 46 37 44 48 44 43 43 42 40 48 49
90 100 100 100 100 100 100 98 86 64 71 64 61 63 68 66 58 56 57 49 44 42 37 39 41 44 73 82 75 65 72 72 69 68 67 62 71 76 70 68 68 60 61
100 100 100 100 100 100 97 82 78 72 85 87 84 70 57 71 81 66 59 63 65 58 57 48 47 50 59 65 54 79 97 99 95 96 81 75 84 84 91 100 97 88 85
100 100 100 100 100 80 77 63 56 53 65 84 95 82 76 68 70 74 66 65 74 62 62 72 64 53 67 76 75 78 73 69 67 64 64 66 66 67 70 88 100 100 100
100 100 100 100 100 100 97 80 67 64 64 59 67 65 64 77 89 77 76 65 67 78 64 73 90 96 82 79 74 70 86 74 54 76 84 63 76 87 73 53 72 95 100
100 100 100 100 100 100 100 99 97 100 100 100 96 84 79 83 78 82 86 83 61 68 74 63 61 70 94 83 58 62 70 89 80 69 77 81 100 98 83 76 66 66 80
100 100 100 100 100 100 100 100 100 100 100 100 100 100 100 100 100 100 100 100 92 87 87 87 86 73 56 41 36 41 83 88 84 87 72 82 60 74 90 72 100 100 90
100 100 98 100 100 100 100 100 100 100 100 90 92 94 100 100 100 97 88 78 81 98 92 100 93 72 60 50 68 88 82 76 67 76 81 95 99 100 99 78 98 90 69
100 100 100 100 100 99 96 95 85 85 92 98 100 100 90 73 64 76 69 64 77 88 100 100 97 92 88 100 100 100 84 77 67 94 100 93 83 76 100 95 96 96 91
88 100 100 100 100 100 100 100 100 100 100 100 100 100 97 90 82 86 78 80 100 100 100 98 100 100 100 100 100 100 97 100 100 100 100 100 100 100 100 86 99 100 72
78 72 100 94 89 100 100 100 100 100 100 100 97 77 71 81 97 87 63 57 96 98 84 73 74 66 63 100 100 100 100 100 100 100 100 100 99 96 76 100 100 100 100
97 77 65 98 55 42 38 40 54 74 68 60 60 76 87 70 62 52 53 69 83 82 84 76 73 73 75 64 64 86 91 98 96 88 95 84 96 100 100 100 100 100 100
100 84 66 56 62 61 66 56 46 47 44 46 53 62 67 66 59 63 82 97 85 64 62 90 100 100 99 96 91 80 74 74 88 88 100 100 100 100 100 100 100 100 100
100 100 100 100 100 100 88 69 61 63 67 68 81 98 97 86 88 91 76 73 67 91 100 100 94 92 84 82 81 78 82 74 75 78 81 83 88 100 100 100 100 100 100
85 82 85 86 100 98 59 63 70 80 100 91 79 64 83 76 65 57 62 72 80 90 95 89 90 94 92 80 55 53 53 48 43 43 45 48 48 48 48 53 66 81 100
82 92 100 97 73 75 96 100 99 93 76 67 84 76 69 63 62 77 77 71 64 68 77 65 51 51 49 45 40 37 31 22 19 18 19 19 21 23 25 26 28 31 32
90 92 94 93 89 91 80 74 65 66 81 75 64 60 66 70 71 65 63 62 56 53 48 41 35 27 22 19 17 17 18 19 18 17 17 16 15 16 18 21 24 27 28
90 97 96 86 78 62 53 64 76 75 65 62 67 76 70 61 58 53 47 42 35 27 22 17 16 16 18 17 16 16 14 12 11 12 12 13 13 14 15 16 16 16 18
59 64 70 69 62 54 56 62 66 67 70 81 81 57 50 42 36 31 23 17 16 16 17 18 18 16 15 13 12 12 11 10 9 9 10 12 14 14 13 13 14 13 12
54 56 58 59 59 60 65 72 73 60 47 38 32 27 22 18 16 17 18 18 17 15 14 13 12 12 11 11 10 10 10 10 10 10 10 10 11 12 13 14 15 15 13
43 40 37 36 33 29 25 21 19 18 18 18 19 19 19 18 15 14 13 12 11 11 11 10 10 9 8 7 6 5 5 5 5 6 7 8 8 8 9 9 10 11 12
25 24 22 22 22 22 22 21 21 21 20 17 15 14 12 11 10 10 9 10 8 6 5 5 5 5 5 5 5 5 5 5 5 5 6 6 6 6 7 7 8 8 8
20 20 19 18 18 17 16 15 14 12 12 12 13 11 8 6 6 6 5 5 5 5 5 6 6 6 6 7 7 7 7 7 6 7 7 7 6 6 6 7 7 7 7
13 13 13 13 12 12 13 13 13 10 8 7 7 6 7 7 7 7 7 7 7 7 7 7 7 7 7 7 7 7 6 6 6 6 6 6 6 6 6 6 6 6 6

GFSGL_250_rhum_096.txt.gz
RH
60 59 61 66 65 66 71 60 33 34 29 26 37 69 85 96 99 100 100 100 100 99 93 73 52 44 49 59 58 48 37 40 47 44 50 50 49 45 46 54 68 80 83
66 59 59 72 61 73 77 78 45 35 30 26 25 23 26 34 45 44 37 35 30 25 23 22 24 24 25 25 27 30 34 32 38 52 44 40 41 43 43 46 48 37 48
70 61 61 81 62 66 78 77 64 56 41 32 26 25 27 28 25 26 26 26 27 33 37 36 32 32 34 30 29 30 29 28 29 34 41 41 46 49 42 47 55 51 56
68 64 65 96 65 68 67 67 74 92 100 60 51 39 33 28 30 28 28 31 34 36 40 42 42 43 40 40 36 41 44 44 43 45 48 49 50 53 51 52 50 60 70
74 92 90 100 71 68 68 69 82 100 100 100 88 52 48 46 32 32 38 44 48 60 66 70 66 59 59 62 62 59 53 52 63 64 63 69 73 71 70 71 70 75 86
85 100 100 100 84 71 79 91 96 100 100 100 100 100 84 52 52 52 45 45 50 54 52 51 62 57 54 54 58 57 60 58 57 61 67 72 88 82 84 83 92 90 84
100 100 100 100 90 95 100 100 100 100 100 100 99 90 88 92 93 90 78 70 63 66 58 54 53 62 76 68 64 62 46 50 53 61 62 70 70 80 84 89 99 99 100
100 100 100 100 100 100 100 100 99 100 96 100 97 85 70 68 75 86 92 91 85 65 55 65 67 74 71 63 69 60 65 62 64 68 68 67 55 50 63 78 91 98 99
100 100 100 100 100 100 100 100 100 100 100 71 62 64 61 60 61 63 67 63 57 54 54 62 58 57 57 54 57 60 65 63 74 82 64 64 67 63 52 46 45 67 58
100 100 100 100 100 100 100 100 94 94 100 100 84 68 59 51 47 52 55 58 59 60 51 64 70 73 79 100 100 99 99 96 79 69 61 75 75 70 81 76 96 100 100
100 100 100 100 100 100 100 100 100 100 100 100 98 79 74 75 72 76 82 72 84 87 94 84 76 82 92 96 89 87 92 94 96 88 82 90 93 92 80 82 78 87 92
100 100 94 78 91 100 100 100 100 100 100 100 100 100 100 100 100 100 100 100 100 100 100 100 100 100 100 100 100 97 92 100 100 96 82 76 70 68 83 87 79 82 81
100 100 100 95 100 100 100 100 100 100 100 100 100 100 100 100 100 100 100 100 100 100 100 100 86 86 89 97 99 84 92 86 77 64 51 53 56 60 62 64 74 73 72
100 90 100 100 100 100 100 100 100 100 100 100 100 100 100 100 100 100 98 98 93 91 98 91 89 91 91 70 72 73 49 45 45 44 45 52 62 70 69 74 79 75 68
100 100 100 100 100 100 100 100 100 100 100 99 100 100 100 100 99 97 88 82 77 81 83 84 75 73 83 96 74 61 70 57 46 45 56 62 77 85 89 84 71 66 67
95 100 100 100 100 100 100 100 100 100 100 100 100 100 94 99 81 74 85 84 75 75 66 62 74 63 57 83 83 79 67 70 57 63 66 86 78 90 89 75 64 60 61
100 97 100 100 100 82 75 100 100 100 100 96 99 93 99 97 70 59 64 75 78 69 57 45 47 52 56 49 55 65 67 57 54 62 81 79 90 86 62 59 46 39 32
81 84 85 92 86 90 100 100 97 100 100 99 80 74 74 83 70 77 86 78 56 49 50 85 92 78 70 68 68 63 75 74 68 78 70 68 58 47 37 27 19 16 16
100 99 84 81 99 89 81 80 68 68 62 68 73 89 97 97 100 97 87 84 81 75 96 99 82 67 74 91 86 73 64 60 74 69 54 44 34 22 16 17 17 16 13
61 69 78 87 97 100 100 91 86 83 86 85 88 81 69 58 52 54 53 52 78 95 90 76 90 84 63 72 72 61 46 46 58 47 30 21 18 19 17 13 12 12 9
70 67 64 58 62 58 52 57 63 62 73 67 65 60 56 62 66 85 76 71 71 69 74 74 67 71 66 50 52 49 36 37 27 20 20 19 16 14 13 12 8 7 6
73 65 57 53 56 60 62 62 60 61 62 65 70 72 73 76 80 86 80 74 68 72 74 66 52 46 48 29 26 26 21 19 20 18 15 12 12 11 7 7 7 8 9
50 55 52 57 60 65 72 76 84 88 87 85 83 77 67 62 63 68 74 69 54 48 45 33 29 28 24 20 19 18 17 16 13 11 11 10 7 7 8 9 9 8 8
32 37 43 48 52 55 58 64 71 65 56 53 48 45 41 37 36 35 33 29 27 25 24 20 19 18 17 16 14 12 11 10 10 7 6 7 8 10 10 8 8 7 7
16 17 18 18 19 19 19 20 20 19 20 20 20 19 18 18 18 18 18 17 16 16 16 15 13 12 11 10 10 9 7 6 7 8 8 8 8 7 6 6 5 5 5
8 8 8 8 9 9 10 10 10 11 11 11 12 11 11 11 12 12 12 12 11 10 10 10 9 8 7 6 6 7 8 8 8 6 6 6 5 4 4 4 4 4 4

GFSGL_250_rhum_102.txt.gz
RH
100 88 80 83 98 72 67 77 73 49 50 44 42 100 100 100 100 100 100 100 100 100 93 85 76 69 67 55 40 39 38 57 57 41 87 100 100 51 19 23 26 31 30
93 78 87 100 91 72 78 100 99 50 52 46 39 84 100 100 100 100 100 100 100 100 100 99 97 99 97 83 76 87 69 65 99 100 100 58 21 24 27 29 33 40 46
78 74 93 100 90 86 69 76 82 56 48 52 45 43 93 100 100 100 100 100 100 100 100 100 100 100 100 94 100 100 100 100 98 49 22 25 30 33 39 42 42 40 46
84 97 100 100 100 100 100 78 67 54 44 53 50 47 41 71 100 100 100 100 100 100 100 100 100 100 100 100 100 100 95 56 26 27 24 27 37 37 42 44 43 44 49
100 100 100 98 97 79 98 100 86 61 52 50 54 53 47 40 43 60 86 97 100 100 100 100 100 100 100 90 62 44 32 26 28 37 38 45 45 39 40 44 48 52 58
94 94 93 92 84 59 76 100 73 69 55 53 55 54 58 58 53 41 33 38 39 47 52 50 46 39 33 30 31 34 36 39 40 37 39 40 46 45 40 46 47 72 76
65 65 61 58 55 50 93 100 81 72 78 57 57 59 57 57 70 76 61 64 82 100 100 81 52 35 39 47 53 40 40 48 59 53 54 62 60 69 69 63 85 77 86
52 47 54 59 67 73 96 100 74 92 97 70 60 63 67 68 76 93 99 100 100 88 78 77 99 100 90 70 71 76 75 78 74 85 94 89 81 71 57 56 56 52 51
63 39 43 53 76 70 89 100 87 100 100 93 71 67 71 76 85 96 99 100 96 80 73 66 71 84 93 95 84 85 82 80 78 74 73 74 68 57 53 50 46 44 46
100 67 42 35 52 76 83 92 100 100 99 99 90 71 78 85 92 100 100 100 100 100 100 100 96 91 89 78 76 74 71 69 67 60 63 60 60 58 54 45 66 84 88
100 100 94 65 80 98 94 100 83 82 92 93 81 84 98 100 100 100 100 100 100 100 100 83 65 68 69 63 54 51 48 49 50 51 70 70 66 62 67 72 91 92 83
100 100 100 100 86 100 89 100 100 100 100 100 100 100 100 100 100 100 100 100 100 89 75 78 84 74 67 78 60 71 62 66 78 79 77 85 79 87 86 92 87 91 99
100 100 100 100 100 100 100 100 100 100 100 100 100 100 100 100 100 100 100 100 100 100 100 100 100 83 73 96 100 100 100 98 96 100 100 100 100 100 100 100 90 100 99
100 100 100 100 100 95 100 100 100 100 100 100 100 100 95 100 100 100 100 100 100 98 91 100 100 100 100 100 100 100 100 82 86 87 86 70 72 100 94 100 100 81 90
100 100 100 100 99 100 100 100 100 100 100 100 100 100 100 100 100 100 100 100 100 100 100 100 100 100 100 100 100 100 100 98 98 100 100 98 89 73 82 88 88 82 79
100 100 100 100 100 100 99 100 100 100 100 100 100 100 100 100 100 100 100 100 100 100 100 100 100 100 100 100 100 100 100 100 100 91 74 92 100 99 80 95 86 71 88
100 100 98 100 92 100 98 100 100 100 100 100 100 100 100 100 100 100 100 100 100 100 100 100 100 100 96 100 100 100 88 100 100 100 89 72 79 90 98 100 100 100 99
97 100 100 99 69 79 100 99 100 95 84 97 99 96 99 100 100 100 100 100 100 100 100 100 100 100 100 100 100 100 94 99 100 98 93 94 100 92 92 100 97 90 84
74 89 96 100 100 100 86 63 72 64 52 65 92 84 96 100 100 100 100 100 97 100 100 100 100 100 100 100 100 96 96 98 94 98 90 86 98 74 84 85 62 56 67
69 69 73 89 98 97 99 100 100 100 91 64 54 73 85 86 78 90 100 99 100 100 99 84 68 65 70 80 81 86 88 68 70 87 85 72 78 73 55 56 64 47 69
78 77 76 65 72 70 84 86 79 99 100 100 50 49 63 72 77 85 61 60 86 100 92 93 78 75 54 49 54 75 80 55 56 55 52 55 49 55 56 53 69 47 50
32 41 67 78 76 63 67 61 57 60 65 77 71 77 84 100 100 70 68 76 80 75 69 66 67 79 79 74 69 67 64 62 63 59 54 57 58 52 50 51 48 31 27
22 25 28 33 48 57 52 51 61 63 67 72 60 57 61 69 75 71 64 63 62 64 66 65 64 56 55 52 58 61 58 53 53 59 61 57 47 39 32 26 20 14 12
14 15 14 14 16 21 26 32 38 52 64 71 76 70 70 70 58 59 67 70 71 67 53 50 49 50 55 56 56 62 61 56 48 41 33 24 21 18 11 10 8 8 8
6 8 10 12 12 12 11 11 12 16 20 25 32 40 42 46 49 42 39 37 38 39 40 39 37 35 32 31 30 29 24 18 17 14 10 9 9 7 7 7 7 7 7
5 5 6 6 6 6 8 9 10 10 10 10 10 10 11 11 12 12 12 12 13 14 14 14 13 12 12 11 10 8 7 7 7 6 6 6 7 7 6 6 6 6 5

GFSGL_250_rhum_105.txt.gz
RH
100 81 69 82 73 72 100 100 97 74 74 71 48 41 42 61 100 100 100 100 97 100 100 100 100 100 100 100 100 89 90 88 66 61 28 34 33 31 48 90 100 64 28
99 84 83 100 90 87 100 100 87 82 82 76 74 50 47 51 82 100 100 100 100 95 100 100 100 100 100 93 79 69 60 62 66 55 54 44 46 57 100 96 51 31 28
93 100 99 100 98 95 97 100 90 86 84 78 71 66 50 48 56 100 100 100 99 100 100 100 100 100 100 100 100 100 100 94 82 61 86 54 99 100 78 55 39 30 33
98 92 98 92 73 88 93 88 94 98 92 83 69 70 62 51 50 76 100 100 100 100 100 100 100 100 100 100 100 100 100 100 97 100 100 100 100 79 58 43 34 38 39
100 100 97 76 67 69 79 89 100 100 100 100 67 60 51 48 51 54 100 100 100 100 98 84 96 100 100 100 100 100 100 100 100 100 100 98 78 54 42 35 44 44 50
100 84 73 68 71 96 96 99 100 100 100 99 77 66 56 48 49 53 64 100 100 100 100 100 100 100 100 100 100 100 100 100 100 100 84 65 53 43 43 52 49 52 63
100 100 100 98 99 100 100 100 100 100 100 99 83 72 58 50 51 54 52 61 79 99 99 100 98 100 100 100 100 100 97 89 75 58 54 46 47 70 80 70 75 80 79
100 96 94 97 99 96 88 95 100 100 100 98 81 79 82 63 54 54 55 48 48 53 60 65 65 66 66 73 95 79 72 78 80 66 60 65 92 98 95 90 88 78 70
76 72 68 74 90 85 74 82 93 100 100 100 79 82 97 96 76 56 58 57 52 55 59 64 63 73 91 88 88 94 87 81 90 98 100 97 86 92 85 79 73 68 66
67 99 98 100 80 92 81 86 78 87 90 98 87 83 77 95 99 87 65 64 64 60 61 76 100 100 100 100 100 100 100 100 99 99 99 73 74 71 59 54 49 45 43
87 100 100 100 100 99 100 100 100 99 95 93 100 98 76 92 100 100 100 90 78 80 84 88 97 100 100 100 89 88 71 78 64 80 80 70 66 52 49 42 43 48 68
100 100 99 100 100 100 100 100 100 100 99 100 80 89 82 79 94 100 100 100 97 93 100 100 100 100 100 96 96 73 66 71 71 72 61 56 71 60 49 84 100 100 96
100 100 100 100 100 100 100 100 100 100 100 96 93 84 92 100 100 100 100 100 100 100 100 100 100 100 100 100 100 90 75 78 98 98 100 100 76 98 100 100 100 100 100
100 100 100 100 100 100 100 100 100 100 100 100 100 100 100 100 100 100 100 100 100 84 98 100 100 100 100 99 100 100 100 100 100 100 88 100 99 98 100 100 100 100 100
100 100 100 98 100 100 100 100 100 99 100 100 100 100 100 100 100 100 100 100 100 100 100 100 100 100 98 100 100 100 100 100 100 100 100 100 100 98 98 83 90 93 100
100 100 100 98 100 100 100 100 100 100 96 100 100 100 100 100 100 100 100 100 100 100 100 100 100 100 100 100 100 99 100 100 100 99 96 95 100 87 82 98 100 94 100
98 100 96 94 91 87 100 100 100 100 98 97 100 100 100 100 100 100 100 100 100 100 100 100 100 100 100 100 100 100 100 100 96 84 96 100 100 100 100 100 100 90 92
90 97 91 99 89 84 78 96 100 100 100 100 98 100 100 100 100 100 100 100 100 100 100 100 100 100 99 100 97 96 100 100 100 100 100 100 100 99 99 100 98 91 93
72 77 84 86 85 85 82 64 69 93 96 97 100 92 92 100 100 100 100 100 100 100 100 100 94 100 100 100 100 100 100 100 100 100 100 100 100 100 100 100 100 100 99
49 65 71 80 83 77 79 77 62 61 63 67 80 84 89 81 85 84 81 100 100 100 100 100 97 86 95 98 100 100 100 97 92 89 98 99 98 98 97 100 100 100 86
25 32 43 62 65 84 79 75 79 73 53 50 60 66 73 84 65 69 82 91 98 93 97 100 99 99 99 99 97 94 80 69 75 92 99 100 100 75 60 72 86 96 73
14 17 21 28 38 49 57 74 85 72 62 63 56 58 61 70 64 54 60 71 68 80 90 86 74 68 64 66 70 70 76 81 66 64 68 76 79 76 67 70 65 61 73
13 12 12 14 15 18 26 37 55 73 80 62 68 63 58 48 47 62 59 52 46 46 44 49 55 55 49 42 43 44 45 50 63 71 67 69 68 65 73 84 81 66 57
11 12 12 12 13 12 13 14 20 22 32 50 50 52 56 77 76 54 50 50 60 68 70 68 64 74 84 70 74 74 65 64 61 56 52 60 72 60 70 79 45 39 34
6 6 6 6 7 9 11 12 12 14 16 20 20 37 37 42 49 52 58 63 60 60 67 55 58 69 70 64 61 65 75 72 56 48 50 49 47 40 48 49 20 11 12
5 5 5 5 5 6 6 6 6 7 8 10 11 13 14 19 32 34 35 46 52 56 57 48 44 44 40 40 43 37 25 26 29 35 41 35 25 15 10 9 8 7 6

GFSGL_250_rhum_108.txt.gz
RH
100 100 100 99 65 64 86 100 100 100 100 100 100 87 55 62 56 48 59 100 100 100 96 100 100 100 100 100 100 100 100 100 100 100 100 100 100 100 82 62 54 64 54
100 100 100 100 83 82 100 100 100 100 100 100 100 94 68 65 57 49 58 89 100 100 100 100 100 100 100 100 100 100 100 100 99 92 100 98 85 62 65 84 85 60 52
94 93 80 84 80 81 93 99 100 95 100 100 100 99 62 80 67 52 57 66 100 100 100 100 100 100 100 100 100 100 100 100 100 86 85 77 68 83 91 91 72 34 86
96 99 90 66 85 83 63 74 74 71 97 100 99 88 89 81 65 52 74 60 79 100 100 100 100 100 100 100 100 100 100 100 100 100 100 100 100 100 81 70 62 100 100
94 89 88 100 100 100 94 85 78 91 89 86 93 100 96 75 65 56 55 76 67 89 100 100 100 100 100 100 100 100 100 96 100 100 100 92 86 84 97 99 100 100 98
84 94 100 90 100 100 100 100 83 81 93 77 100 100 89 74 80 79 56 54 57 68 96 100 100 100 100 100 100 100 100 100 100 100 100 100 100 100 100 100 100 100 95
90 84 88 91 87 92 98 100 92 100 100 79 97 100 100 100 92 88 60 50 51 54 67 98 100 100 100 100 99 100 100 100 100 100 100 100 100 100 100 100 99 92 80
97 92 85 82 83 82 84 78 71 72 82 88 98 100 100 100 96 98 100 88 57 55 55 67 99 100 100 100 100 100 100 100 100 100 100 100 100 100 99 90 81 86 84
100 100 100 99 83 84 96 92 100 100 94 94 100 100 100 100 100 97 96 85 69 55 61 56 72 92 100 100 100 100 100 100 100 100 100 100 100 100 98 100 99 88 85
100 83 92 88 86 100 100 98 84 100 100 99 100 100 99 100 99 83 84 97 79 58 60 60 58 71 79 85 97 95 89 89 91 99 100 100 100 100 100 100 99 95 100
75 72 72 64 66 77 85 98 100 100 100 100 91 98 100 97 86 100 99 85 92 81 72 73 78 65 68 68 66 73 79 84 87 92 85 86 82 79 66 91 100 100 97
68 63 64 74 75 92 89 100 99 100 100 95 100 100 90 100 100 100 100 99 92 98 92 96 96 84 84 88 78 84 90 100 99 100 93 86 90 89 95 100 99 84 72
80 82 75 73 75 100 86 85 100 100 100 95 100 100 91 98 100 100 100 100 100 96 96 100 100 100 100 100 100 100 100 97 100 100 100 100 100 100 91 77 64 54 56
66 80 78 82 100 100 100 100 100 100 80 100 100 100 94 100 100 100 99 100 100 100 100 100 90 95 100 100 100 100 100 100 100 100 100 100 100 90 92 91 97 99 100
69 66 70 79 100 100 100 100 100 100 100 100 100 100 87 87 98 100 100 100 100 100 100 99 100 100 100 100 100 100 100 100 100 100 100 100 100 87 86 93 100 97 91
66 64 66 68 100 100 100 100 98 93 100 100 100 100 100 89 94 98 100 100 100 100 100 100 100 94 84 90 100 100 100 100 100 100 98 99 92 77 90 99 94 91 61
60 57 62 67 83 100 100 100 100 100 100 88 90 100 100 100 100 100 100 100 100 100 100 99 100 100 93 100 100 100 100 90 100 100 100 100 100 100 94 87 74 93 100
45 46 51 63 65 86 100 100 100 100 100 95 69 83 80 100 99 100 96 91 100 100 100 100 100 100 100 99 100 100 100 100 92 100 100 100 100 98 100 100 100 100 100
31 34 36 44 57 62 75 85 95 97 100 100 99 78 68 65 100 92 87 91 100 90 100 95 90 89 100 100 100 100 100 100 100 100 100 100 100 100 100 98 93 96 95
20 22 27 33 36 41 52 65 81 65 68 85 100 86 78 56 52 74 92 98 94 100 99 84 92 96 100 82 92 100 100 100 100 95 100 100 100 100 100 100 100 82 77
14 14 15 17 22 33 41 44 50 70 72 73 77 82 87 85 72 50 63 76 84 82 84 84 71 78 80 85 74 84 90 79 78 99 98 84 80 99 100 89 90 96 83
12 11 10 10 11 13 16 23 31 37 41 53 55 61 67 71 68 58 47 48 58 58 65 79 86 82 79 77 75 77 80 81 68 74 88 79 77 72 75 83 80 71 68
12 12 12 12 12 11 9 9 10 14 21 27 31 41 39 44 49 51 54 53 51 48 49 55 55 69 77 83 78 75 70 70 72 64 61 57 58 55 55 55 58 54 51
7 7 7 7 7 7 9 10 10 10 9 9 11 15 16 23 36 32 38 49 49 58 58 55 48 46 51 60 63 55 50 45 44 49 50 51 51 52 53 59 68 60 53
6 7 7 6 6 6 6 6 6 6 7 8 9 9 9 9 11 12 17 25 34 37 44 47 45 45 47 45 44 42 43 46 50 49 49 51 52 51 55 56 53 48 46
4 4 4 4 4 5 6 6 5 5 5 5 5 5 6 7 8 8 9 10 10 12 15 19 25 29 27 27 30 32 34 36 35 38 39 37 37 36 41 50 38 43 48

GFSGL_250_rhum_111.txt.gz
RH
100 100 100 100 100 100 64 55 49 58 92 100 100 100 100 100 100 100 100 80 64 56 54 100 100 100 98 100 81 100 100 100 100 100 100 100 100 86 84 92 100 100 100
100 100 100 100 100 100 92 72 71 75 76 93 89 100 100 99 100 100 100 85 76 58 56 100 100 100 100 100 100 100 100 100 100 100 100 100 100 95 98 100 100 100 100
100 83 88 85 100 100 100 94 84 82 79 93 83 100 100 100 100 100 100 100 78 54 58 89 100 100 100 100 100 100 100 100 100 100 100 100 100 100 100 100 100 100 98
100 100 100 100 97 99 100 100 100 100 100 100 86 99 100 100 100 100 100 100 76 58 59 67 100 100 100 90 100 100 100 100 100 100 100 100 100 100 100 100 99 86 68
100 95 91 98 97 99 100 100 99 96 86 92 93 83 100 100 100 100 68 78 73 62 54 75 91 100 100 100 100 100 100 100 100 100 100 100 100 100 92 78 75 82 94
98 100 100 100 89 77 94 100 100 100 77 65 65 66 81 91 96 93 73 80 73 68 56 58 90 93 100 100 100 100 100 100 100 100 96 100 92 100 100 100 100 94 75
63 67 72 71 74 76 68 69 88 99 76 100 100 51 66 72 86 90 70 92 62 70 77 63 68 78 93 100 100 100 100 100 95 99 100 100 100 100 100 98 94 87 96
62 52 54 60 60 69 70 69 80 75 94 100 96 100 87 99 100 97 81 72 71 61 93 76 73 62 68 85 100 100 100 100 100 100 99 97 91 87 83 86 100 100 100
84 82 72 84 88 91 86 66 72 80 100 100 100 100 100 100 99 100 100 99 88 69 88 99 85 67 85 68 84 95 100 100 100 100 100 100 100 100 100 100 100 100 100
92 92 90 91 96 97 99 99 97 96 94 89 100 100 100 100 100 90 100 100 84 71 94 100 100 99 89 85 70 75 84 100 100 100 100 100 100 100 100 100 100 100 100
100 100 100 100 100 100 100 100 100 95 98 94 81 74 100 100 100 100 99 100 100 100 100 93 90 99 95 97 88 72 67 77 88 100 100 100 100 100 100 100 100 100 96
99 93 92 96 100 97 100 100 94 81 85 82 86 95 98 100 100 76 100 100 97 91 100 100 100 100 100 99 100 93 83 78 73 88 100 100 100 100 100 100 100 100 100
77 80 86 83 77 67 62 59 61 65 65 66 96 97 97 100 100 96 100 100 100 100 100 100 100 100 100 100 97 81 100 94 92 77 79 100 100 100 100 100 100 97 93
61 63 65 62 63 68 76 75 78 74 74 73 82 100 100 100 100 95 100 100 100 100 100 87 77 97 100 100 100 100 100 100 100 100 100 100 100 100 100 100 100 100 100
71 70 73 81 88 82 78 82 80 85 87 98 100 100 100 99 100 100 100 100 100 100 93 98 82 77 91 98 100 100 100 100 100 100 94 95 100 100 100 100 100 100 100
88 91 93 88 76 68 65 61 70 75 83 88 100 100 98 98 99 100 100 100 100 100 100 91 90 93 93 100 100 100 100 100 100 100 99 99 100 89 100 100 100 100 100
67 66 64 64 63 63 62 58 60 70 72 77 100 100 100 100 94 99 100 100 97 94 100 100 100 77 80 77 99 100 100 100 99 98 100 100 100 100 100 100 100 100 100
49 48 47 46 45 47 50 46 44 50 64 68 73 99 100 100 100 100 100 83 83 86 83 77 85 87 78 76 91 100 100 100 100 100 100 100 100 100 100 100 100 100 100
24 23 22 21 22 25 29 34 37 40 47 57 62 73 85 92 100 97 100 91 79 80 92 100 98 91 94 99 98 100 100 97 100 98 100 100 100 100 88 90 83 93 100
19 17 14 14 14 14 16 20 25 28 33 39 47 59 66 72 75 74 72 71 82 80 62 59 62 64 72 97 96 99 100 99 86 97 100 100 100 100 92 89 61 60 68
17 16 16 14 13 12 11 12 13 14 17 23 30 35 48 60 66 75 70 74 77 74 67 59 53 52 57 60 74 96 96 85 75 76 90 84 94 91 86 79 79 84 77
15 14 14 14 14 14 14 13 11 11 11 12 14 18 24 32 41 52 62 66 71 74 71 70 60 57 54 48 50 64 67 72 78 79 81 91 84 67 67 79 81 72 71
9 9 8 8 8 9 9 10 11 11 11 10 9 10 12 16 21 25 27 32 41 46 52 62 67 63 60 58 54 45 46 49 50 60 69 77 82 85 80 79 69 59 64
8 8 7 7 6 6 5 6 6 6 6 6 8 9 9 9 9 10 14 18 21 22 22 29 35 35 36 38 42 47 49 50 51 51 51 56 66 65 64 68 71 64 58
4 4 4 4 5 5 5 5 5 6 6 6 5 5 5 6 6 8 9 9 10 10 12 14 15 15 17 21 23 24 27 32 36 44 54 57 53 51 54 54 51 50 52
3 3 3 3 3 3 3 3 3 3 3 4 4 4 4 4 4 4 5 5 6 7 8 9 9 9 10 11 11 12 12 12 13 14 16 20 25 27 27 27 29 28 29

GFSGL_250_rhum_114.txt.gz
RH
37 50 78 100 100 100 99 83 70 76 96 100 100 100 100 100 96 100 100 100 100 92 83 62 67 60 55 96 99 100 100 100 95 100 100 100 100 100 100 100 98 100 100
32 43 58 100 100 100 100 100 100 86 89 83 80 91 91 89 100 98 97 100 100 94 89 70 79 73 58 86 89 100 100 93 73 100 100 100 100 100 100 100 100 100 100
36 44 58 85 100 100 100 100 100 74 74 66 70 70 95 100 100 100 100 99 90 89 89 92 83 88 53 70 100 100 100 100 96 96 100 100 100 100 92 97 100 100 99
45 46 54 62 100 100 100 100 100 100 90 92 69 69 88 96 100 99 100 90 89 92 98 88 98 78 51 57 99 100 100 100 100 100 100 100 100 100 100 100 100 100 100
51 54 62 72 91 100 100 100 100 100 100 100 84 86 97 96 83 97 90 95 97 94 85 84 97 77 72 60 61 100 100 100 100 100 100 100 100 100 100 100 100 100 98
55 55 61 59 98 100 100 100 100 100 100 100 100 100 100 100 98 82 100 100 100 100 89 80 89 81 61 56 60 76 100 100 100 100 100 100 100 100 100 100 100 100 100
58 51 56 61 97 100 100 100 100 100 100 100 100 84 100 100 100 97 100 91 77 90 91 93 86 83 87 67 55 64 96 100 100 100 100 100 100 100 79 91 98 91 97
57 52 51 56 70 95 100 100 100 100 100 100 93 90 92 95 100 88 100 100 100 100 100 66 70 60 71 74 69 65 70 94 100 100 100 100 100 100 100 99 100 94 94
63 56 52 52 56 73 86 93 100 99 100 97 98 92 87 82 91 97 100 100 100 100 100 100 81 69 76 65 58 74 68 72 89 100 100 100 100 100 100 100 100 100 100
94 100 81 75 68 62 58 58 62 66 69 68 67 67 72 77 87 100 100 100 73 100 100 78 70 68 91 84 80 97 92 77 76 86 99 100 100 100 100 100 96 88 88
99 98 94 86 78 82 92 93 88 77 71 63 66 74 79 95 92 100 100 100 100 100 100 96 100 100 100 98 98 100 100 100 100 98 84 100 100 100 100 100 100 100 100
100 94 92 100 100 98 92 87 87 92 96 100 100 99 100 100 100 100 100 100 100 100 100 100 100 100 100 99 100 100 97 100 98 99 100 99 97 100 100 100 100 100 100
91 100 100 100 100 100 100 100 100 100 100 100 100 100 99 98 96 93 100 100 100 100 100 100 100 100 100 100 100 81 84 100 100 100 100 100 100 100 100 100 100 100 100
72 74 80 80 97 100 100 97 88 86 91 96 94 93 93 95 96 94 96 95 88 97 100 100 100 100 76 76 98 100 95 100 100 100 100 100 100 96 100 100 100 100 100
98 90 91 84 72 72 78 80 76 74 75 74 72 67 62 57 59 64 73 74 71 73 76 100 100 100 100 100 100 76 90 99 86 83 92 100 100 94 98 100 94 84 75
73 71 72 70 67 66 60 59 64 64 66 65 61 62 63 61 58 61 62 60 66 80 100 100 100 100 100 100 100 88 59 65 83 78 84 89 93 100 100 99 94 98 100
69 70 67 65 65 65 62 61 60 60 60 58 62 60 72 77 62 56 64 70 73 84 99 100 100 100 100 100 100 100 100 100 79 57 61 79 94 100 100 95 94 100 100
61 59 58 56 54 53 52 51 48 48 50 50 50 50 51 53 55 60 61 61 74 82 92 100 100 100 100 100 100 100 100 100 78 66 58 91 100 100 79 82 82 90 99
28 29 28 28 29 30 30 29 28 29 31 32 34 36 37 38 40 48 61 61 62 73 86 79 75 88 96 89 80 86 100 100 100 100 100 100 100 81 76 68 70 84 100
19 18 18 18 19 19 18 18 18 18 18 18 17 17 18 19 22 26 35 50 54 56 62 82 92 83 77 76 80 78 88 93 94 96 94 88 70 66 60 62 70 83 96
16 16 15 15 15 16 16 16 15 15 15 15 15 15 15 15 14 15 19 24 32 40 44 49 58 77 88 79 78 81 78 79 77 68 59 55 56 62 66 74 74 87 81
13 12 11 11 10 10 11 11 11 12 12 13 13 13 13 12 13 13 13 14 17 24 28 32 36 39 44 50 61 66 64 61 66 64 61 60 63 67 64 62 53 48 51
9 9 9 8 8 7 6 6 6 6 6 6 7 8 9 10 10 10 10 10 10 11 13 17 22 25 30 34 40 50 54 54 54 51 50 50 50 51 47 46 46 50 54
8 7 6 6 6 6 6 5 5 5 5 5 5 5 5 5 6 6 8 9 9 9 8 9 9 11 15 18 21 26 28 30 31 34 36 38 43 45 42 41 42 43 44
4 4 4 4 4 4 4 4 4 4 4 4 4 4 4 5 5 5 5 5 5 6 7 8 9 9 9 9 10 11 12 14 16 18 20 22 23 26 29 29 30 30 31
3 3 3 3 3 3 3 3 3 3 3 3 3 3 3 3 3 3 4 4 4 4 4 4 5 5 6 7 8 8 8 9 10 10 10 10 10 11 11 12 13 13 13

GFSGL_250_rhum_117.txt.gz
RH
67 61 56 46 56 80 72 79 65 98 99 90 88 81 99 100 100 100 98 100 100 94 94 100 100 100 76 74 56 53 58 53 65 83 88 88 97 88 100 100 93 100 100
43 44 51 46 60 75 66 83 86 96 100 96 100 90 100 100 100 100 100 100 100 100 82 97 96 79 73 75 71 48 54 53 68 67 76 83 98 100 100 100 100 81 100
44 46 45 50 65 75 57 78 80 76 87 97 98 96 100 100 100 100 100 100 100 100 87 89 88 68 55 80 74 64 54 56 68 84 78 74 75 76 100 100 100 100 67
54 47 46 45 52 51 50 80 82 83 79 80 97 86 82 81 76 92 98 98 97 100 94 68 70 75 78 100 78 68 59 55 75 89 71 85 71 100 100 99 100 100 87
52 52 44 42 42 39 43 48 70 84 83 88 96 95 99 100 87 65 71 98 98 100 100 100 87 100 94 100 89 62 64 61 58 84 100 100 100 100 100 100 84 97 100
52 45 43 39 38 41 40 41 42 64 99 100 98 100 96 100 80 84 97 100 100 100 100 100 100 100 100 96 98 58 70 62 48 49 88 100 76 83 100 100 100 93 80
93 81 52 39 36 40 42 47 58 67 80 100 100 100 100 100 87 74 78 72 99 100 100 100 100 100 100 100 100 94 61 57 57 46 44 89 100 100 100 100 96 100 100
100 97 79 67 61 57 56 58 69 75 72 95 100 100 100 100 100 98 89 59 89 100 100 100 100 100 100 100 100 88 75 87 64 50 48 56 93 100 100 100 100 98 100
96 95 90 74 74 68 64 60 62 71 75 80 97 100 100 100 100 100 100 100 100 97 100 86 85 93 79 85 85 95 70 86 87 64 71 65 67 75 100 100 100 100 99
100 100 100 93 83 63 76 73 57 55 62 69 81 98 100 100 100 100 100 100 100 88 83 100 100 100 100 95 100 88 100 99 99 87 67 52 55 54 60 100 100 100 100
100 100 100 98 91 86 83 68 66 60 58 59 59 70 84 94 97 97 95 97 100 100 87 87 100 100 100 100 97 67 69 88 63 66 71 55 58 67 87 100 100 100 100
100 96 100 100 99 99 98 92 87 82 82 85 75 62 64 70 75 83 86 89 84 77 75 96 96 100 100 100 100 98 96 98 95 89 80 80 81 70 57 79 100 100 100
79 73 76 78 71 67 74 81 78 82 78 75 79 84 78 72 66 65 64 67 73 76 93 100 100 100 100 100 100 100 100 100 100 100 100 100 99 90 73 88 97 100 100
67 67 63 62 66 99 92 76 79 80 82 78 76 80 77 77 82 87 98 100 100 100 100 98 99 100 100 100 100 100 100 100 100 100 100 100 100 100 92 69 69 88 99
79 87 85 81 84 85 90 100 98 100 100 92 93 99 100 97 97 96 97 99 100 100 100 100 100 100 100 100 100 100 100 100 100 100 100 100 100 100 100 100 92 87 87
68 78 81 80 83 76 66 70 81 81 95 92 92 97 98 91 80 89 96 100 100 100 100 100 99 100 100 100 99 100 100 100 100 100 100 100 100 100 81 88 99 91 100
69 64 64 68 70 70 75 85 72 74 87 86 79 84 92 86 94 89 81 73 69 70 70 72 76 79 81 85 87 89 89 89 84 99 100 100 100 100 100 100 75 65 61
63 60 59 59 59 59 61 60 56 53 58 61 60 56 60 63 64 64 64 63 66 62 57 56 57 55 51 51 50 51 55 63 70 88 96 100 100 100 100 100 100 91 69
30 29 29 29 30 31 33 35 37 38 38 39 42 44 45 46 48 50 48 48 48 47 46 45 47 48 47 44 46 52 55 58 65 69 88 100 100 100 100 100 100 100 96
16 15 15 15 16 17 16 16 16 18 19 19 20 21 22 23 24 27 32 37 40 40 40 41 42 43 45 47 47 48 48 48 52 65 80 91 100 100 100 100 100 100 100
13 13 13 13 13 13 12 12 12 13 13 14 14 15 16 16 16 15 15 15 16 16 18 19 21 24 27 31 34 38 41 41 43 48 56 84 78 86 100 99 100 98 93
11 11 10 9 8 8 8 9 9 9 9 10 10 11 11 11 12 12 12 12 12 12 12 12 12 12 12 12 13 16 22 27 32 37 40 47 63 71 81 84 83 84 87
10 9 8 7 7 6 6 5 5 5 5 5 5 5 5 6 6 7 8 8 9 9 9 9 10 10 10 10 10 10 10 12 17 22 26 30 34 39 46 52 54 56 62
8 7 6 5 4 4 4 4 4 4 4 4 4 4 4 4 5 5 5 5 5 5 6 7 8 9 9 9 9 8 8 8 9 10 11 14 17 20 23 26 32 36 40
5 4 4 4 3 3 3 3 3 3 3 3 3 3 3 3 3 3 3 4 4 4 4 4 4 5 5 5 6 7 8 9 9 9 9 10 10 11 12 13 14 15 17
4 3 3 3 3 2 2 2 2 2 2 2 2 2 2 2 2 2 2 2 2 2 3 3 3 3 4 4 4 4 4 5 5 6 7 8 9 9 10 10 10 10 10

GFSGL_250_rhum_123.txt.gz
RH
34 69 81 90 89 98 100 100 100 100 100 100 96 96 89 70 48 65 96 100 100 100 100 100 100 100 100 100 100 100 100 97 68 95 95 69 62 54 47 33 29 48 84
35 70 87 100 100 100 100 100 100 100 99 100 100 100 84 54 59 67 79 100 100 100 100 100 100 100 100 100 100 100 100 100 76 97 74 54 54 65 59 42 33 37 53
58 41 82 100 100 100 100 100 100 100 100 100 100 100 61 57 63 61 80 96 100 100 100 100 100 100 100 100 100 94 96 93 76 84 74 69 74 68 69 56 40 32 36
100 58 40 72 95 100 100 100 100 100 100 100 100 95 57 68 40 47 61 85 100 100 100 100 100 100 100 100 100 76 95 94 88 96 99 82 74 73 93 80 59 45 38
100 92 61 55 55 95 100 100 100 100 100 100 100 72 59 71 44 38 52 69 97 100 100 100 100 100 100 100 100 100 100 77 100 100 99 82 100 93 82 90 83 62 58
92 95 79 54 45 50 49 59 73 78 79 61 57 60 62 60 48 44 43 73 90 100 100 100 100 100 100 100 100 100 100 100 100 100 100 94 100 100 93 92 84 61 61
88 87 97 86 65 61 64 67 59 58 72 80 86 75 62 69 63 44 37 48 64 74 96 98 100 100 100 100 100 100 100 100 100 100 100 100 91 54 66 65 66 67 66
94 88 91 84 75 65 57 64 67 69 66 79 81 79 68 63 57 51 46 38 48 56 69 87 83 99 100 100 100 100 100 100 96 88 100 100 100 100 93 95 82 90 88
85 87 90 95 95 90 81 66 57 63 65 67 67 62 54 56 50 44 36 34 33 37 46 66 72 74 93 100 100 100 100 99 89 83 100 100 100 100 100 100 100 100 99
90 100 98 85 95 90 87 84 82 74 74 67 60 49 45 42 37 35 32 30 31 31 31 36 44 70 71 82 79 83 92 100 94 77 100 100 100 100 100 100 100 100 74
100 100 100 100 100 87 81 90 92 96 98 96 90 78 63 50 43 39 35 33 29 31 32 32 34 41 53 59 70 86 99 100 100 94 85 99 94 92 74 69 82 76 66
98 100 100 100 100 100 100 100 100 100 97 100 97 93 88 91 85 70 48 38 36 35 31 29 30 35 50 55 72 98 99 100 100 100 100 100 100 97 98 100 100 100 100
93 90 85 98 100 100 100 100 89 100 100 100 100 100 100 99 89 91 89 72 47 32 31 29 29 29 32 34 47 93 100 100 100 100 100 100 100 100 100 100 100 100 100
86 74 73 74 75 79 99 100 100 100 100 100 86 99 100 100 100 91 84 76 72 64 56 50 45 43 42 49 54 54 91 100 100 100 100 100 100 100 100 100 100 97 100
100 100 97 96 97 85 88 67 71 83 97 92 87 89 94 99 100 100 98 96 95 89 75 70 69 70 63 55 56 73 78 73 82 88 96 100 100 100 100 100 100 100 100
98 100 100 100 99 98 96 88 79 72 75 63 62 66 65 66 72 76 85 91 93 94 95 99 95 94 86 86 89 80 70 68 68 66 65 69 80 100 100 100 100 100 100
74 71 71 68 73 70 73 67 67 61 60 52 54 59 59 57 53 53 60 66 71 75 74 74 71 76 86 94 93 89 84 84 79 74 76 68 64 82 82 86 100 100 100
48 48 48 46 43 40 37 37 36 33 35 37 36 33 33 34 34 37 40 44 46 50 50 54 55 57 56 59 68 77 79 78 82 80 81 90 90 84 94 94 99 100 100
40 38 35 31 29 27 26 24 23 22 22 22 23 25 26 27 27 27 28 29 29 32 35 40 43 45 42 44 58 64 65 68 72 76 78 81 86 98 98 93 92 91 100
20 18 16 15 14 13 12 11 10 10 9 9 9 10 9 10 11 13 15 16 18 23 26 28 29 32 37 34 34 44 54 61 66 70 78 81 83 79 78 87 100 100 100
20 18 16 15 13 12 11 10 9 8 8 7 7 7 7 6 6 7 8 8 9 9 10 12 14 18 22 26 30 32 32 37 40 43 46 48 51 60 68 69 77 84 86
23 20 16 13 10 8 8 7 7 6 6 6 6 5 5 5 5 5 5 6 6 6 6 7 7 8 9 10 11 12 15 20 23 25 28 30 33 38 43 43 44 45 51
26 20 13 9 7 6 5 5 5 5 4 4 4 4 4 4 4 4 4 4 4 4 5 5 5 6 6 7 7 7 8 8 9 10 12 14 16 18 22 26 30 32 33
20 13 9 6 4 4 3 3 3 3 3 3 3 3 3 3 3 3 3 3 3 3 3 3 3 4 4 4 4 5 6 6 7 8 8 9 10 10 11 12 13 14 15
13 8 5 4 3 3 3 2 2 2 2 2 2 2 2 2 2 2 2 2 2 2 2 2 2 3 3 3 3 3 4 4 4 4 4 5 5 6 7 8 9 10 11
7 5 4 3 3 3 2 2 2 2 2 2 2 2 2 2 2 2 2 2 2 2 2 2 2 2 2 2 2 2 3 3 3 3 3 3 4 4 4 5 5 5 6

GFSGL_250_rhum_126.txt.gz
RH
4 6 10 14 95 100 100 100 100 100 100 100 96 99 95 100 100 100 99 72 73 93 95 71 70 84 100 100 100 100 100 100 100 100 100 100 100 91 71 49 57 45 44
6 9 15 18 42 100 100 100 100 100 100 100 100 100 98 100 100 100 100 100 79 68 80 89 74 66 84 100 100 100 100 100 100 96 100 100 100 100 74 48 55 78 62
7 12 19 24 26 89 91 99 100 100 100 100 100 100 100 94 100 100 100 99 87 94 80 85 92 92 56 73 93 100 87 96 100 63 97 100 100 100 68 63 65 76 61
18 17 39 95 100 57 99 100 100 100 100 100 100 100 100 100 100 100 97 77 88 73 68 60 75 100 100 100 92 100 98 63 84 100 68 88 99 100 73 59 76 64 71
19 62 100 100 100 100 100 100 100 100 100 100 100 100 100 100 100 100 98 97 100 76 68 50 54 86 100 100 100 100 100 97 91 100 83 84 91 100 100 88 97 88 84
22 33 96 100 100 100 100 100 100 100 98 100 100 100 100 100 100 100 100 100 100 100 58 49 53 49 59 85 100 100 100 100 100 100 89 93 86 98 85 86 63 65 100
71 97 83 67 63 100 100 100 100 100 100 100 100 100 100 100 100 100 100 100 100 100 56 58 73 55 44 45 64 100 100 100 100 100 100 100 100 100 100 91 94 93 100
80 100 100 100 100 100 100 100 100 100 100 100 100 100 100 100 100 100 100 87 88 86 76 77 70 68 61 50 32 71 94 100 100 100 100 100 100 100 98 100 94 96 100
66 63 53 66 100 100 100 100 100 100 100 100 100 100 100 100 89 97 94 92 73 89 100 87 76 72 64 49 40 39 53 67 90 100 100 100 100 100 100 100 100 100 100
100 89 70 51 31 40 47 61 82 92 98 99 100 100 100 93 68 76 90 78 79 78 84 80 68 43 37 34 37 37 43 72 76 86 99 100 100 100 100 100 100 100 100
100 100 100 100 90 84 74 60 56 78 84 67 67 70 74 79 72 69 70 74 68 53 52 50 42 43 43 43 43 37 34 44 67 75 77 76 100 100 100 100 100 100 100
81 86 96 100 98 94 76 77 80 68 67 56 47 45 45 45 43 42 46 51 52 51 47 42 40 33 31 29 27 28 28 32 49 56 64 70 65 79 100 100 100 99 100
100 92 97 81 72 81 78 84 87 77 74 67 59 61 61 58 54 56 54 51 51 48 44 38 31 30 33 34 35 30 29 28 30 33 40 44 47 66 78 85 81 78 83
89 94 93 91 98 100 100 100 100 79 69 60 54 54 61 61 64 65 63 63 64 68 69 61 58 54 47 45 39 36 33 29 30 30 33 35 35 36 52 64 71 78 100
100 95 84 76 75 71 69 72 85 93 94 94 94 92 87 70 87 83 96 89 95 88 90 83 82 77 67 55 53 51 48 42 33 32 32 32 32 34 52 66 90 100 100
92 100 100 100 100 100 88 87 81 70 69 71 70 73 69 75 97 98 83 80 78 75 70 71 83 91 89 92 76 58 52 52 48 41 33 31 35 34 39 46 51 74 100
84 77 66 64 65 62 66 67 64 63 69 56 50 51 47 48 51 48 51 59 67 61 59 55 57 58 53 59 60 63 62 59 58 54 51 43 39 43 48 52 58 70 80
67 57 50 47 45 43 41 38 36 34 38 38 34 40 31 28 29 29 27 27 28 32 33 37 44 41 39 41 40 42 51 48 50 53 57 60 62 56 60 68 69 76 80
48 48 45 46 48 49 48 47 42 39 36 32 30 28 27 24 23 23 23 22 21 22 22 23 24 26 26 28 30 30 32 33 38 44 49 50 58 61 64 65 72 82 92
25 22 21 20 19 18 16 15 14 13 12 10 9 9 8 7 7 7 8 8 7 8 8 9 11 14 15 16 19 19 20 21 24 28 33 41 45 48 54 60 66 69 77
27 28 28 28 28 27 24 20 17 13 10 8 7 7 7 6 6 5 5 6 6 6 6 6 6 6 6 6 7 8 10 12 12 15 18 21 26 30 35 38 42 44 46
47 42 36 30 25 20 16 11 7 6 5 5 5 5 5 5 4 4 4 4 4 4 4 4 4 5 5 5 6 5 6 6 7 8 9 11 13 16 20 23 25 28 30
48 43 37 31 24 17 11 7 5 4 3 3 3 3 3 3 3 3 2 3 3 3 3 3 3 3 3 4 4 4 5 5 6 6 6 7 7 8 10 12 15 18 20
52 45 36 26 18 10 6 4 3 3 2 2 2 2 2 2 2 2 2 2 2 2 2 2 2 2 2 2 3 3 3 4 4 4 5 5 6 6 7 8 8 9 11
46 35 25 17 10 7 5 3 3 2 2 2 2 2 2 2 2 2 2 2 2 2 2 2 2 2 2 2 2 2 2 2 2 3 3 4 4 4 5 5 6 6 7
30 21 14 9 6 4 3 3 2 2 2 2 2 2 1 1 1 1 2 2 2 2 2 2 2 2 2 2 2 2 2 2 2 2 2 2 2 3 3 3 4 4 5

GFSGL_250_rhum_132.txt.gz
RH
7 4 3 3 3 2 3 4 8 13 19 20 32 94 99 100 100 100 100 100 100 100 100 100 100 97 100 100 89 57 94 76 74 100 100 100 100 100 100 93 37 69 83
9 5 3 3 2 2 4 6 12 17 18 23 68 100 100 100 100 93 100 100 100 100 100 100 100 93 82 100 100 74 64 100 99 80 99 100 100 100 100 100 68 91 55
12 5 4 3 3 4 7 12 17 18 21 71 100 100 100 100 97 100 100 100 100 100 100 88 71 95 100 86 100 100 87 100 94 86 96 100 98 98 100 100 99 95 93
10 5 6 5 6 8 12 16 22 39 78 100 100 100 100 100 100 99 100 100 94 100 100 100 90 98 100 82 96 100 100 100 94 55 100 100 100 80 79 95 88 80 99
30 14 15 17 10 14 16 19 30 71 100 100 100 100 100 98 100 100 100 97 100 100 100 100 92 100 100 98 69 100 94 100 99 62 86 59 100 100 94 86 91 100 100
28 26 20 26 28 18 27 49 93 100 95 100 100 100 100 100 100 100 100 100 100 100 100 93 100 100 100 100 100 83 63 73 100 88 67 55 56 78 90 48 63 90 97
16 32 38 32 18 22 28 74 100 100 100 100 100 98 100 99 100 100 100 100 100 100 100 100 100 100 100 100 95 86 77 60 58 65 49 39 43 41 77 78 82 100 100
36 20 20 46 28 32 79 100 100 100 100 100 100 100 100 100 100 100 100 100 100 100 100 100 100 100 100 100 100 96 82 69 79 88 79 89 86 50 55 82 62 88 100
44 15 13 37 35 55 89 100 100 100 100 100 95 100 100 98 100 100 100 98 100 100 100 100 100 100 100 100 100 100 100 100 100 96 74 70 68 68 58 50 39 84 86
65 26 16 28 54 79 100 100 100 100 100 100 100 100 100 89 100 100 100 100 100 100 100 100 100 100 100 95 100 100 100 100 100 97 79 86 80 82 85 65 46 50 52
59 41 16 21 41 61 86 100 100 100 100 100 100 100 100 100 100 100 100 100 100 100 100 100 100 100 100 96 88 96 100 100 100 100 100 90 89 92 94 79 77 75 59
76 67 35 23 36 82 99 100 100 100 100 100 100 100 100 100 100 100 100 100 100 100 100 100 100 100 100 100 100 100 100 100 100 100 100 100 100 100 100 98 100 98 82
74 82 86 62 34 79 100 100 100 100 100 100 97 100 100 100 100 100 100 100 100 100 100 100 100 100 100 100 100 100 100 100 95 86 83 80 89 93 93 88 100 84 66
62 85 93 72 90 66 78 88 100 100 100 100 100 100 99 100 98 100 100 98 91 89 97 100 100 98 96 91 99 100 100 100 98 76 66 76 68 77 68 60 48 43 42
55 52 82 78 84 93 95 86 70 67 75 88 98 100 94 100 99 100 99 96 100 100 96 91 86 88 90 90 90 86 78 79 77 67 62 63 52 43 45 39 36 45 37
60 58 49 62 77 64 43 45 52 61 67 68 64 64 59 58 66 69 66 75 83 86 90 87 76 70 68 73 70 63 58 55 52 49 48 47 45 40 36 30 30 31 28
68 54 49 46 41 58 66 57 47 40 35 31 32 32 40 41 40 39 43 47 48 64 57 61 54 51 52 48 49 49 50 47 44 41 38 38 39 32 25 23 22 27 32
48 58 65 56 46 41 34 32 32 30 30 32 30 22 20 20 19 17 18 18 25 27 39 42 32 33 34 37 33 25 23 26 26 26 27 24 22 24 24 22 26 31 32
35 36 38 39 42 43 44 42 40 37 28 21 18 17 18 17 16 16 17 16 14 14 14 16 22 27 23 20 23 17 15 18 23 17 22 22 16 17 16 17 19 22 23
35 32 32 32 33 35 31 26 22 21 20 18 16 13 11 8 7 6 5 4 4 4 4 5 5 6 6 7 8 8 9 9 8 8 9 8 8 8 9 9 12 15 17
32 33 36 34 24 20 19 18 16 14 13 12 11 10 10 9 9 8 7 6 5 4 4 4 4 4 4 3 3 3 3 3 3 3 3 3 3 3 4 4 4 4 5
44 36 29 23 21 21 23 25 25 23 20 18 16 13 10 9 8 6 6 7 7 5 4 3 3 2 2 2 2 2 2 2 2 2 2 2 3 3 4 4 4 4 4
32 31 36 44 47 45 43 39 33 28 24 20 14 10 6 5 4 4 3 3 3 3 3 2 2 2 2 2 2 2 2 2 2 2 2 2 2 2 2 2 3 3 3
54 59 58 53 49 45 39 34 30 25 19 14 9 6 4 3 3 2 2 2 2 2 2 2 2 2 2 2 2 2 2 2 2 2 2 2 2 2 2 2 2 2 2
65 60 56 54 49 43 36 30 27 22 14 9 6 4 3 3 2 2 2 2 2 2 2 2 1 1 1 1 1 1 1 1 1 1 1 1 1 2 2 2 2 2 2
57 55 50 46 41 35 32 28 18 11 8 5 4 3 3 2 2 2 2 2 1 1 2 2 1 1 1 1 1 1 1 1 1 1 1 1 1 1 1 2 2 2 2

GFSGL_250_rhum_135.txt.gz
RH
23 47 28 9 4 3 3 3 3 3 4 10 18 19 20 22 62 100 100 100 100 100 100 100 100 100 100 100 100 100 80 100 88 100 97 70 54 86 99 98 82 50 32
45 55 38 12 5 3 3 3 3 3 5 11 17 20 22 22 78 100 100 98 100 100 100 100 100 100 100 100 100 100 87 86 100 98 95 99 100 83 100 98 84 63 25
62 67 46 18 5 4 4 3 3 4 5 12 18 20 22 44 98 100 100 100 99 97 100 100 98 98 100 100 100 87 74 94 100 100 93 100 100 100 100 100 100 93 83
70 76 27 12 7 6 5 5 4 5 7 12 16 18 35 72 100 100 100 100 100 99 100 100 100 100 100 100 100 86 97 96 100 100 100 100 100 100 100 100 100 100 100
64 78 31 9 8 8 7 8 7 8 10 15 18 27 41 69 100 100 100 100 100 100 99 100 100 100 100 97 100 81 100 100 95 100 100 100 100 100 100 100 100 100 100
67 88 43 29 34 21 34 33 11 16 20 17 21 26 39 64 100 100 100 100 100 100 100 92 88 100 100 100 100 91 100 100 100 100 99 96 100 100 100 100 100 100 100
75 98 84 71 66 50 81 53 24 23 17 19 23 34 53 100 100 100 100 100 100 100 100 100 99 100 98 100 100 100 100 100 100 100 97 85 84 85 88 98 78 94 90
80 72 98 91 84 63 60 52 52 25 21 21 25 46 57 97 100 100 100 100 100 100 100 100 100 100 100 100 100 100 100 100 100 100 76 59 62 63 76 90 90 91 81
77 80 69 80 85 64 48 47 34 24 22 30 33 41 53 85 100 100 100 100 100 100 100 100 100 100 100 96 100 100 100 100 100 94 100 100 95 67 69 57 71 56 54
84 82 68 68 57 67 29 28 28 31 33 37 41 58 89 100 100 100 100 100 100 99 100 100 100 100 100 100 100 100 99 100 100 100 98 100 84 100 99 100 63 46 47
93 100 93 84 62 60 37 29 34 37 39 40 53 86 100 100 100 100 100 100 100 100 100 100 100 100 100 100 100 100 100 100 100 100 100 100 100 100 100 94 94 94 74
80 97 98 95 75 71 38 32 38 45 52 81 100 100 100 100 100 100 100 100 100 100 100 100 100 100 100 100 100 100 100 90 100 100 94 93 100 100 88 98 100 100 100
67 77 94 95 81 66 35 34 43 69 100 100 100 100 100 100 100 100 100 100 100 100 100 100 100 92 100 100 100 100 100 100 98 100 100 100 100 100 100 100 100 100 100
62 62 74 86 88 73 50 38 54 96 100 100 100 100 100 100 100 99 100 100 100 100 100 100 100 97 100 98 100 100 100 100 100 100 100 98 100 82 99 98 99 100 100
44 49 48 64 70 72 63 41 55 92 100 100 100 100 100 100 100 100 97 92 97 99 94 93 96 92 100 100 100 100 100 100 100 100 100 100 100 100 100 100 99 93 86
37 43 46 48 50 52 62 67 43 79 100 100 100 100 100 100 100 100 89 98 91 97 88 72 75 96 82 88 92 100 90 100 99 88 81 84 79 96 97 81 86 78 77
34 38 37 36 34 35 38 56 58 55 66 79 91 100 98 94 100 100 100 75 71 73 81 70 65 80 74 67 58 65 69 78 83 82 71 80 87 78 81 80 82 79 60
33 32 28 26 28 28 29 26 27 42 50 56 68 78 81 85 86 83 83 89 82 79 71 57 61 70 71 69 64 74 65 61 64 64 59 63 70 74 78 84 72 76 71
36 33 28 25 24 23 22 23 26 24 20 23 29 37 53 64 67 72 71 68 64 52 57 54 49 45 42 41 42 41 45 52 53 45 45 42 46 45 43 47 57 56 47
29 28 27 25 25 26 23 20 19 18 19 18 18 18 18 18 22 23 29 33 43 47 42 44 51 56 55 58 52 51 43 38 39 36 33 29 32 31 32 33 33 32 32
29 26 24 22 22 21 19 16 12 10 10 10 10 10 10 10 10 11 11 12 15 26 29 28 27 22 17 10 8 11 18 28 27 30 30 17 8 13 21 27 22 18 10
28 25 24 24 20 14 11 11 10 10 10 9 8 8 8 8 7 7 6 6 5 5 5 4 5 5 5 5 4 4 4 4 4 4 4 4 4 4 3 3 3 4 4
26 25 22 18 17 17 17 18 19 18 17 16 15 15 14 12 9 7 6 5 5 5 5 4 4 4 3 3 3 3 3 2 2 2 2 2 2 2 2 2 2 2 2
24 23 23 24 27 30 31 29 27 25 24 22 20 16 13 10 7 5 4 3 3 2 2 2 2 2 2 2 2 2 2 2 2 2 2 2 2 2 2 2 2 2 2
28 32 39 43 42 41 40 36 33 31 28 22 16 12 8 5 3 3 2 2 2 2 2 2 2 2 2 2 2 2 2 1 1 1 1 1 1 1 1 1 1 1 1
50 52 53 51 48 45 40 35 31 27 23 19 14 8 4 4 3 2 2 2 2 2 2 2 1 1 1 2 2 1 1 1 1 1 1 1 1 1 1 1 1 1 1

GFSGL_250_rhum_138.txt.gz
RH
52 37 30 32 26 13 6 3 3 2 3 3 4 8 14 14 18 36 100 100 100 98 85 100 100 100 100 100 100 100 100 100 100 100 100 100 83 87 64 66 59 46 56
61 62 46 41 40 23 14 3 3 3 4 5 4 7 16 15 20 30 93 100 100 100 100 100 89 100 100 100 100 100 100 100 100 100 100 87 72 76 98 81 71 69 84
65 58 65 43 63 34 10 4 3 3 5 5 5 7 15 16 18 23 52 98 100 100 100 98 100 100 100 100 100 100 100 99 100 100 100 100 92 65 86 96 61 85 100
74 78 64 58 61 32 13 7 5 4 5 5 5 7 15 17 19 21 69 95 92 100 100 100 100 99 100 100 100 100 100 100 100 100 100 100 93 63 100 100 80 63 80
56 81 83 70 58 25 13 10 6 6 6 6 6 7 15 20 18 22 46 100 98 100 100 100 100 100 100 100 100 100 100 100 100 100 100 100 86 93 100 100 79 89 89
55 79 100 78 61 28 14 17 11 7 9 9 10 10 16 21 17 22 66 100 100 100 100 100 100 100 100 100 100 100 100 100 100 100 100 100 100 100 100 100 100 100 100
58 60 99 95 94 69 29 41 53 54 39 25 17 10 15 23 23 29 45 100 100 100 100 100 100 100 100 100 100 100 100 100 98 100 100 100 98 100 94 85 100 100 100
53 56 70 100 100 95 62 71 60 98 92 49 34 15 16 24 26 27 47 100 100 100 100 100 100 100 100 100 100 92 100 100 100 94 100 100 100 100 100 100 100 100 100
50 58 67 86 100 99 91 80 89 78 100 79 45 28 17 24 29 28 36 95 100 100 100 100 100 100 100 100 100 100 100 97 80 100 100 100 100 100 100 99 99 80 60
50 50 62 81 84 100 87 75 78 100 70 91 61 45 22 25 32 31 42 92 100 100 100 100 100 100 100 100 100 100 100 100 100 100 100 100 100 100 100 91 87 100 99
44 47 63 70 68 86 100 91 81 74 86 63 51 42 29 27 33 34 44 100 100 100 100 100 100 100 100 100 100 100 100 100 99 100 99 100 100 100 100 100 91 92 100
39 42 55 80 88 78 80 84 89 84 67 76 49 43 31 29 35 36 42 79 100 100 100 100 100 100 100 100 100 100 100 100 99 98 79 100 100 100 100 100 100 100 100
32 37 45 61 88 95 92 82 79 84 69 63 51 27 28 34 38 39 43 54 84 100 100 100 100 100 100 100 100 100 100 100 100 100 100 89 82 79 96 100 100 100 97
26 30 38 48 64 93 92 92 83 88 75 50 39 26 29 34 38 42 43 57 77 84 100 100 100 100 100 100 98 100 100 100 100 100 100 100 100 99 100 89 80 82 93
20 25 32 44 52 69 87 83 82 71 75 42 32 29 32 32 38 47 53 56 70 78 97 100 100 100 100 100 100 100 93 99 100 99 73 87 100 100 100 100 100 100 100
19 23 27 36 50 58 72 80 78 72 74 60 32 32 36 41 44 51 63 78 76 73 88 100 100 92 90 95 100 94 86 91 99 99 92 86 76 87 100 98 100 98 100
19 22 26 32 39 48 53 68 71 70 69 65 50 32 38 39 46 47 52 70 77 84 81 100 98 84 78 77 81 81 79 86 88 89 86 95 88 87 86 92 78 77 73
22 24 25 26 27 30 34 34 38 48 50 50 58 44 35 39 43 43 49 51 67 78 82 93 100 100 96 85 78 73 80 78 73 82 81 71 80 81 77 69 72 76 54
24 25 27 27 28 29 29 29 30 31 38 42 42 42 41 35 36 41 45 43 47 59 69 81 83 91 93 86 61 66 77 67 56 54 55 70 61 64 62 54 42 35 53
25 26 27 27 28 27 26 23 21 21 20 20 22 30 34 36 33 32 36 47 56 44 44 56 70 84 84 88 79 62 55 47 48 48 49 43 39 42 45 40 37 39 36
26 29 30 29 25 24 24 23 21 20 19 17 14 13 14 19 24 30 32 31 37 44 51 53 53 54 59 59 56 57 51 46 36 30 33 33 32 28 32 37 38 32 31
22 24 25 25 25 24 22 20 17 14 12 12 14 14 13 12 11 11 13 16 22 26 27 32 44 52 56 51 49 55 56 52 48 45 46 43 33 30 36 42 37 38 37
22 23 23 23 20 17 13 12 13 12 12 11 11 10 10 10 9 9 10 9 9 11 15 17 21 26 29 34 41 42 43 40 38 38 38 36 30 18 10 15 16 8 5
22 22 21 19 18 18 18 18 19 20 23 22 19 16 14 12 11 10 8 6 5 5 5 5 5 5 5 6 8 9 6 4 3 3 3 3 2 2 2 2 2 2 2
24 23 23 23 24 26 30 34 33 31 29 25 21 19 17 15 14 10 7 6 5 4 4 4 3 3 3 3 3 3 3 3 3 2 2 2 2 2 2 2 2 2 2
26 28 33 36 39 40 40 37 33 29 28 25 23 21 17 12 8 5 4 3 3 2 2 2 2 2 2 2 2 2 2 2 2 2 2 2 2 2 2 2 2 2 2

GFSGL_250_rhum_141.txt.gz
RH
26 27 30 50 48 33 28 13 6 6 5 4 3 4 3 5 15 15 32 88 100 100 100 100 93 75 100 100 100 100 100 100 100 100 100 100 97 100 100 100 100 60 41
36 31 34 56 59 56 46 21 9 6 4 3 3 5 4 4 14 16 21 52 100 100 100 100 80 100 100 100 94 100 100 98 100 100 100 100 100 100 98 87 100 100 98
42 35 34 74 64 48 68 43 13 5 4 4 5 7 7 5 12 18 18 53 91 100 98 86 100 100 100 100 100 100 100 100 100 100 100 100 100 100 100 100 98 100 100
49 44 36 63 77 73 93 72 16 11 5 4 7 8 7 6 10 18 18 24 43 70 100 95 100 100 100 100 100 100 100 100 100 100 100 100 100 100 97 100 100 100 100
47 49 44 43 70 61 68 85 29 15 8 10 12 12 7 7 9 18 18 16 39 50 99 100 100 100 99 94 100 100 100 100 100 100 100 100 100 100 98 90 100 100 100
43 43 49 46 58 87 67 72 44 29 14 20 25 20 14 9 10 17 16 16 24 32 100 100 100 100 98 100 100 100 100 99 100 97 100 100 100 100 91 91 100 100 99
56 44 49 52 49 62 90 93 64 38 34 26 21 19 16 10 11 18 19 18 23 29 100 100 100 100 100 100 100 100 100 93 100 91 100 100 98 71 100 99 96 100 100
56 52 45 54 53 48 88 99 86 80 60 41 29 24 17 12 13 18 21 23 23 40 92 100 100 100 100 100 100 100 100 88 84 98 94 98 84 100 100 100 100 100 100
55 55 52 50 52 53 46 99 96 87 78 51 45 22 39 18 15 14 23 26 26 34 100 100 100 100 100 100 100 100 100 100 100 100 100 100 100 100 100 100 98 99 100
49 49 53 53 50 51 50 56 94 98 89 100 77 39 20 25 15 16 22 28 27 31 84 100 100 100 100 100 100 100 100 100 100 100 100 100 100 94 100 100 98 86 100
44 45 48 48 47 44 48 61 69 82 94 80 90 93 47 37 26 20 21 27 29 30 40 99 100 100 100 100 100 100 100 100 100 100 100 100 100 100 100 100 99 98 88
38 39 38 36 37 39 44 52 76 77 71 91 92 87 82 53 37 28 19 26 27 31 37 65 100 100 100 100 100 100 100 100 100 100 100 100 97 96 100 100 100 100 98
27 24 23 26 29 34 40 54 63 69 78 75 73 91 84 67 47 42 25 22 29 32 35 40 100 100 100 100 100 100 100 100 100 100 100 100 100 100 100 100 93 100 100
14 13 14 17 21 27 36 47 76 77 76 86 80 68 68 86 58 41 38 29 25 32 31 32 53 100 100 100 100 100 100 100 99 100 92 100 100 100 92 90 94 90 100
11 11 12 14 17 22 29 37 54 75 81 85 91 88 80 71 66 53 39 38 26 30 34 32 34 90 100 100 100 100 100 100 96 100 100 91 99 100 100 98 69 67 71
14 14 13 15 17 21 26 32 39 55 76 79 86 82 73 74 71 56 44 39 33 27 30 34 32 62 79 91 100 100 100 100 96 90 100 100 81 96 100 84 83 83 78
16 15 15 17 19 22 27 31 30 38 52 69 67 63 67 63 65 68 56 42 38 30 25 28 32 32 40 57 72 89 92 97 97 80 82 90 94 77 92 79 78 74 64
18 18 19 19 20 22 24 27 29 32 35 34 38 41 46 58 58 52 60 50 34 29 26 25 27 30 34 38 54 66 86 82 87 94 82 81 85 88 77 74 55 48 56
18 19 19 21 23 25 26 26 26 26 26 28 31 38 37 37 42 46 41 42 37 26 24 24 26 28 28 30 30 37 54 71 76 69 74 82 63 60 56 54 54 55 58
19 19 20 21 22 24 26 28 26 24 22 20 20 20 19 20 22 20 24 27 29 29 25 21 20 23 24 25 27 25 26 30 31 34 56 61 56 59 46 52 58 67 53
20 20 20 21 22 24 25 24 23 22 21 19 18 17 17 15 13 13 14 12 15 21 26 25 22 19 19 21 21 21 20 20 20 21 30 34 36 37 40 49 40 42 46
21 21 21 21 21 22 24 24 24 23 22 20 17 14 13 13 13 13 12 11 11 12 12 13 18 21 21 20 19 18 19 19 20 20 22 25 29 32 32 36 40 40 40
21 22 22 22 22 22 22 22 21 20 18 17 17 17 16 14 14 13 12 10 9 8 8 8 8 8 9 10 11 11 12 13 14 15 15 15 17 18 19 22 26 29 33
27 25 23 22 21 21 21 20 20 20 20 21 21 22 22 21 20 18 16 14 13 10 9 7 6 5 5 4 4 5 5 6 6 6 5 5 5 7 10 12 13 13 14
27 25 24 25 25 24 24 23 24 27 29 29 29 27 24 21 20 19 18 16 14 12 10 8 8 7 6 6 6 5 4 3 3 3 2 2 2 2 2 2 3 2 2
23 22 21 21 21 24 28 30 30 29 26 23 21 20 20 19 17 14 13 11 9 7 6 5 5 4 4 3 3 3 3 3 3 3 3 2 2 2 2 2 2 2 2

GFSGL_250_rhum_144.txt.gz
RH
70 57 57 41 32 29 23 30 30 24 17 10 8 6 4 4 4 4 8 14 11 15 37 100 100 89 97 100 99 98 100 97 100 100 100 100 100 100 100 100 100 100 100
65 52 54 45 35 32 36 26 39 37 16 8 5 4 4 5 5 4 7 14 12 17 40 97 100 100 100 72 100 100 100 100 100 100 100 100 100 100 100 91 100 100 100
57 53 51 44 37 33 39 45 49 41 20 16 5 4 4 5 6 6 6 14 13 15 32 92 100 100 100 100 100 98 99 79 84 100 100 100 100 100 100 96 100 100 100
52 51 49 46 41 34 35 35 46 56 46 29 12 8 7 9 8 6 7 14 14 15 26 87 100 90 100 100 100 100 95 77 97 94 100 100 100 100 100 100 100 78 100
54 53 48 42 44 38 38 36 41 61 76 47 20 15 14 17 20 10 8 14 16 15 23 82 100 100 100 100 100 100 100 100 100 84 100 100 100 100 100 100 100 77 87
54 54 50 45 40 41 38 41 38 47 76 64 35 29 27 23 25 24 12 11 16 16 24 64 100 90 100 100 100 100 100 100 100 100 100 96 99 100 100 100 100 100 93
67 58 52 48 45 42 42 38 45 44 69 95 55 37 42 36 34 25 15 10 17 17 24 62 99 100 100 100 98 100 100 100 100 100 80 98 100 97 100 100 100 100 99
74 60 55 48 46 46 42 39 37 45 69 86 77 76 50 43 40 29 18 12 14 19 21 58 49 100 100 100 100 100 100 100 100 100 85 100 100 100 100 100 100 100 91
62 59 52 46 45 45 45 41 37 37 48 80 86 73 82 62 44 46 22 13 12 22 23 25 44 100 100 100 100 100 100 100 100 100 100 100 100 100 100 100 100 100 100
61 54 47 48 48 45 42 43 40 36 38 48 92 97 67 78 68 43 35 20 14 19 24 28 52 93 100 100 100 100 100 100 100 100 100 100 95 94 100 100 100 97 99
52 47 47 45 44 40 38 39 38 36 34 41 66 94 89 70 74 78 60 25 18 15 24 28 51 98 100 100 100 100 100 100 100 100 100 100 100 100 100 100 100 94 78
49 43 40 38 36 34 34 33 33 32 34 32 53 82 92 96 73 57 96 55 27 18 17 25 26 56 100 100 100 100 100 100 100 100 100 100 100 100 100 100 100 100 96
43 42 35 32 26 23 24 24 25 26 31 35 34 50 85 91 96 78 50 92 64 46 17 23 27 28 54 100 100 100 100 100 100 100 100 100 100 100 100 100 100 99 100
42 34 25 18 15 13 13 14 17 22 27 34 49 55 53 75 96 94 82 59 63 63 35 24 26 30 30 41 59 82 100 100 100 100 100 100 100 100 100 100 100 100 100
30 20 15 12 11 12 12 13 14 20 24 33 46 59 73 74 72 90 82 63 54 58 61 40 28 28 28 31 35 39 56 100 100 100 100 100 100 100 100 100 100 100 100
19 15 12 13 14 14 15 14 15 17 25 26 40 59 70 75 72 71 79 76 57 44 43 48 53 35 29 28 29 29 29 62 100 100 100 100 93 100 100 100 100 100 100
16 12 13 15 15 14 16 16 16 17 21 29 34 32 35 48 59 56 53 58 55 56 51 35 28 31 32 30 26 28 26 28 60 95 82 100 96 81 100 100 100 100 95
13 13 14 15 16 16 18 19 18 19 20 25 32 39 42 45 48 47 42 38 39 47 54 61 49 32 21 22 25 26 24 26 27 41 68 90 99 76 79 87 74 97 95
13 14 16 16 16 16 17 19 20 20 21 21 24 28 30 33 37 41 47 44 43 37 32 33 33 38 37 28 16 17 22 26 25 26 30 56 73 89 86 80 82 86 78
13 16 17 17 16 17 16 17 18 20 20 20 22 20 19 19 18 20 22 22 21 20 20 18 18 20 21 24 24 21 14 13 17 20 22 23 28 54 68 82 84 77 75
14 17 18 18 17 18 17 17 17 18 19 19 18 17 17 16 16 16 15 14 14 13 14 13 13 13 12 12 14 14 18 16 14 12 12 14 17 20 21 21 33 39 31
16 19 19 19 19 17 18 18 18 17 17 16 16 17 16 16 14 13 12 12 11 11 11 11 11 10 10 9 9 8 8 8 9 10 10 11 10 10 11 14 14 16 17
16 21 22 21 22 23 22 20 18 18 17 16 16 15 15 15 14 13 12 11 10 9 9 8 7 6 6 6 6 6 5 4 4 4 5 5 5 6 6 8 9 10 11
16 20 22 22 22 23 23 22 22 21 20 20 19 19 18 17 16 14 13 12 10 10 9 8 7 6 6 5 4 4 4 4 4 3 3 3 3 3 3 3 4 4 5
12 16 18 20 20 21 22 21 20 18 18 18 18 19 18 17 16 16 16 16 15 14 12 10 8 7 6 6 5 4 4 4 4 4 3 3 2 2 2 2 2 2 2
11 12 13 16 18 19 19 19 18 17 16 15 15 17 17 17 17 17 16 14 13 11 10 9 8 7 6 5 5 4 4 3 3 2 2 2 2 2 2 2 2 2 2